Wetterdaten: Samstag, 21.11.2015
Datum Zeit Temp. Aussen Temp. o. S. +5cm Feuchte Auss BlattFeu 1 Luftdruck Regen Sonnenschein Regendauer Solar Windben Empfang
21.11.2015 00:00 5,4 C 5,6 C 4,4 C 92 % 3 lf 998,6 hPa 0,0 l/m 0 min 2 min 0 W/m 16,7 km/h (3 Bft) 95,74 %
21.11.2015 00:02 5,4 C 5,6 C 4,4 C 92 % 8 lf 998,4 hPa 0,0 l/m 0 min 2 min 0 W/m 20,9 km/h (4 Bft) 97,06 %
21.11.2015 00:05 5,4 C 5,0 C 4,4 C 92 % 9 lf 998,4 hPa 0,0 l/m 0 min 2 min 0 W/m 27,2 km/h (4 Bft) 96,34 %
21.11.2015 00:06 5,3 C 5,0 C 4,4 C 92 % 9 lf 998,4 hPa 0,0 l/m 0 min 1 min 0 W/m 33,5 km/h (5 Bft) 100,00 %
21.11.2015 00:08 5,3 C 5,0 C 3,9 C 92 % 8 lf 998,4 hPa 0,0 l/m 0 min 0 min 0 W/m 23,0 km/h (4 Bft) 97,87 %
21.11.2015 00:10 5,3 C 5,0 C 3,9 C 92 % 6 lf 998,4 hPa 0,0 l/m 0 min 0 min 0 W/m 25,1 km/h (4 Bft) 95,74 %
21.11.2015 00:12 5,3 C 5,0 C 3,9 C 92 % 4 lf 998,5 hPa 0,0 l/m 0 min 0 min 0 W/m 20,9 km/h (4 Bft) 100,00 %
21.11.2015 00:14 5,3 C 5,0 C 3,9 C 92 % 4 lf 998,4 hPa 0,0 l/m 0 min 0 min 0 W/m 25,1 km/h (4 Bft) 97,83 %
21.11.2015 00:16 5,3 C 5,0 C 3,9 C 92 % 3 lf 998,4 hPa 0,0 l/m 0 min 0 min 0 W/m 25,1 km/h (4 Bft) 97,87 %
21.11.2015 00:18 5,3 C 5,6 C 3,9 C 92 % 3 lf 998,4 hPa 0,0 l/m 0 min 0 min 0 W/m 23,0 km/h (4 Bft) 100,00 %
21.11.2015 00:20 5,3 C 5,6 C 3,9 C 92 % 2 lf 998,3 hPa 0,0 l/m 0 min 0 min 0 W/m 25,1 km/h (4 Bft) 97,87 %
21.11.2015 00:22 5,3 C 5,0 C 3,9 C 92 % 2 lf 998,3 hPa 0,0 l/m 0 min 0 min 0 W/m 16,7 km/h (3 Bft) 95,74 %
21.11.2015 00:24 5,2 C 5,0 C 3,9 C 92 % 1 lf 998,3 hPa 0,0 l/m 0 min 0 min 0 W/m 20,9 km/h (4 Bft) 97,87 %
21.11.2015 00:26 5,2 C 5,0 C 3,9 C 92 % 1 lf 998,2 hPa 0,0 l/m 0 min 0 min 0 W/m 20,9 km/h (4 Bft) 93,48 %
21.11.2015 00:28 5,2 C 5,0 C 3,9 C 92 % 0 lf 998,3 hPa 0,0 l/m 0 min 0 min 0 W/m 20,9 km/h (4 Bft) 97,87 %
21.11.2015 00:30 5,2 C 5,0 C 3,3 C 92 % 0 lf 998,2 hPa 0,0 l/m 0 min 0 min 0 W/m 18,8 km/h (3 Bft) 97,87 %
21.11.2015 00:32 5,1 C 5,0 C 3,3 C 92 % 0 lf 998,2 hPa 0,0 l/m 0 min 0 min 0 W/m 20,9 km/h (4 Bft) 100,00 %
21.11.2015 00:34 5,1 C 5,0 C 3,3 C 92 % 0 lf 998,2 hPa 0,0 l/m 0 min 0 min 0 W/m 14,6 km/h (3 Bft) 100,00 %
21.11.2015 00:36 5,1 C 4,4 C 3,3 C 92 % 0 lf 998,2 hPa 0,0 l/m 0 min 0 min 0 W/m 12,6 km/h (3 Bft) 100,00 %
21.11.2015 00:38 5,1 C 4,4 C 3,3 C 92 % 0 lf 998,2 hPa 0,0 l/m 0 min 0 min 0 W/m 14,6 km/h (3 Bft) 97,83 %
21.11.2015 00:40 5,0 C 4,4 C 3,3 C 92 % 0 lf 998,1 hPa 0,0 l/m 0 min 0 min 0 W/m 20,9 km/h (4 Bft) 95,74 %
21.11.2015 00:42 4,9 C 4,4 C 3,3 C 92 % 0 lf 998,1 hPa 0,0 l/m 0 min 0 min 0 W/m 18,8 km/h (3 Bft) 100,00 %
21.11.2015 00:44 4,9 C 4,4 C 3,3 C 92 % 0 lf 998,2 hPa 0,0 l/m 0 min 0 min 0 W/m 18,8 km/h (3 Bft) 100,00 %
21.11.2015 00:46 4,9 C 4,4 C 3,3 C 92 % 0 lf 998,1 hPa 0,0 l/m 0 min 0 min 0 W/m 25,1 km/h (4 Bft) 95,74 %
21.11.2015 00:48 4,9 C 4,4 C 3,3 C 92 % 0 lf 998,1 hPa 0,0 l/m 0 min 0 min 0 W/m 27,2 km/h (4 Bft) 97,87 %
21.11.2015 00:50 4,8 C 4,4 C 3,3 C 92 % 0 lf 998,1 hPa 0,0 l/m 0 min 0 min 0 W/m 10,5 km/h (2 Bft) 91,30 %
21.11.2015 00:52 4,8 C 4,4 C 3,3 C 92 % 0 lf 998,1 hPa 0,0 l/m 0 min 0 min 0 W/m 18,8 km/h (3 Bft) 95,74 %
21.11.2015 00:54 4,8 C 4,4 C 3,3 C 92 % 0 lf 998,1 hPa 0,0 l/m 0 min 0 min 0 W/m 18,8 km/h (3 Bft) 95,74 %
21.11.2015 00:56 4,8 C 4,4 C 3,3 C 92 % 0 lf 998,1 hPa 0,0 l/m 0 min 0 min 0 W/m 18,8 km/h (3 Bft) 97,87 %
21.11.2015 00:58 4,8 C 4,4 C 3,9 C 92 % 0 lf 998,0 hPa 0,0 l/m 0 min 0 min 0 W/m 27,2 km/h (4 Bft) 97,87 %
21.11.2015 01:00 4,8 C 5,0 C 3,9 C 92 % 0 lf 998,1 hPa 0,0 l/m 0 min 0 min 0 W/m 27,2 km/h (4 Bft) 97,87 %
21.11.2015 01:02 4,8 C 5,0 C 3,9 C 92 % 0 lf 998,0 hPa 0,0 l/m 0 min 0 min 0 W/m 25,1 km/h (4 Bft) 95,65 %
21.11.2015 01:04 4,8 C 5,0 C 3,9 C 92 % 0 lf 998,0 hPa 0,0 l/m 0 min 0 min 0 W/m 18,8 km/h (3 Bft) 97,87 %
21.11.2015 01:06 4,8 C 5,0 C 3,9 C 92 % 0 lf 998,0 hPa 0,0 l/m 0 min 0 min 0 W/m 25,1 km/h (4 Bft) 93,62 %
21.11.2015 01:08 4,8 C 5,0 C 3,9 C 92 % 0 lf 998,0 hPa 0,0 l/m 0 min 0 min 0 W/m 20,9 km/h (4 Bft) 91,49 %
21.11.2015 01:10 4,8 C 5,0 C 3,9 C 92 % 0 lf 998,0 hPa 0,0 l/m 0 min 0 min 0 W/m 27,2 km/h (4 Bft) 95,74 %
21.11.2015 01:12 4,8 C 5,0 C 3,9 C 92 % 0 lf 997,9 hPa 0,0 l/m 0 min 0 min 0 W/m 20,9 km/h (4 Bft) 97,87 %
21.11.2015 01:14 4,8 C 5,0 C 3,9 C 92 % 0 lf 997,9 hPa 0,0 l/m 0 min 0 min 0 W/m 23,0 km/h (4 Bft) 97,83 %
21.11.2015 01:16 4,8 C 5,0 C 3,9 C 92 % 0 lf 997,8 hPa 0,0 l/m 0 min 0 min 0 W/m 20,9 km/h (4 Bft) 93,62 %
21.11.2015 01:18 4,8 C 5,0 C 3,9 C 92 % 0 lf 997,8 hPa 0,0 l/m 0 min 0 min 0 W/m 25,1 km/h (4 Bft) 93,62 %
21.11.2015 01:20 4,8 C 5,0 C 3,9 C 92 % 0 lf 997,7 hPa 0,0 l/m 0 min 2 min 0 W/m 29,3 km/h (5 Bft) 95,74 %
21.11.2015 01:22 4,8 C 5,0 C 3,9 C 92 % 0 lf 997,7 hPa 0,0 l/m 0 min 0 min 0 W/m 16,7 km/h (3 Bft) 97,87 %
21.11.2015 01:24 4,8 C 5,0 C 3,9 C 93 % 1 lf 997,6 hPa 0,0 l/m 0 min 0 min 0 W/m 20,9 km/h (4 Bft) 93,48 %
21.11.2015 01:26 4,9 C 5,0 C 3,9 C 93 % 1 lf 997,7 hPa 0,0 l/m 0 min 0 min 0 W/m 29,3 km/h (5 Bft) 91,49 %
21.11.2015 01:28 4,9 C 5,0 C 3,9 C 93 % 0 lf 997,7 hPa 0,0 l/m 0 min 0 min 0 W/m 27,2 km/h (4 Bft) 95,74 %
21.11.2015 01:30 4,9 C 5,0 C 3,9 C 92 % 0 lf 997,7 hPa 0,0 l/m 0 min 0 min 0 W/m 31,4 km/h (5 Bft) 95,74 %
21.11.2015 01:32 4,9 C 5,0 C 3,9 C 92 % 0 lf 997,6 hPa 0,0 l/m 0 min 0 min 0 W/m 29,3 km/h (5 Bft) 97,87 %
21.11.2015 01:34 4,9 C 5,0 C 3,9 C 92 % 0 lf 997,6 hPa 0,0 l/m 0 min 0 min 0 W/m 29,3 km/h (5 Bft) 97,87 %
21.11.2015 01:36 4,9 C 5,0 C 3,9 C 92 % 0 lf 997,5 hPa 0,0 l/m 0 min 0 min 0 W/m 29,3 km/h (5 Bft) 97,83 %
21.11.2015 01:38 4,9 C 5,6 C 3,9 C 92 % 0 lf 997,5 hPa 0,0 l/m 0 min 0 min 0 W/m 27,2 km/h (4 Bft) 97,87 %
21.11.2015 01:40 4,9 C 5,6 C 3,9 C 92 % 0 lf 997,6 hPa 0,0 l/m 0 min 0 min 0 W/m 31,4 km/h (5 Bft) 100,00 %
21.11.2015 01:42 5,0 C 5,6 C 3,9 C 92 % 0 lf 997,5 hPa 0,0 l/m 0 min 0 min 0 W/m 29,3 km/h (5 Bft) 93,62 %
21.11.2015 01:44 5,0 C 5,6 C 3,9 C 92 % 1 lf 997,4 hPa 0,0 l/m 0 min 0 min 0 W/m 20,9 km/h (4 Bft) 97,87 %
21.11.2015 01:46 5,0 C 5,6 C 3,9 C 92 % 1 lf 997,4 hPa 0,0 l/m 0 min 0 min 0 W/m 25,1 km/h (4 Bft) 97,87 %
21.11.2015 01:48 5,1 C 5,6 C 3,9 C 92 % 0 lf 997,4 hPa 0,0 l/m 0 min 0 min 0 W/m 25,1 km/h (4 Bft) 95,65 %
21.11.2015 01:50 5,1 C 5,6 C 3,9 C 92 % 0 lf 997,3 hPa 0,0 l/m 0 min 0 min 0 W/m 29,3 km/h (5 Bft) 95,74 %
21.11.2015 01:52 5,1 C 5,6 C 3,9 C 92 % 0 lf 997,3 hPa 0,0 l/m 0 min 0 min 0 W/m 31,4 km/h (5 Bft) 95,74 %
21.11.2015 01:54 5,1 C 5,6 C 3,9 C 92 % 0 lf 997,2 hPa 0,0 l/m 0 min 0 min 0 W/m 25,1 km/h (4 Bft) 95,74 %
21.11.2015 01:56 5,1 C 5,6 C 3,9 C 92 % 0 lf 997,3 hPa 0,0 l/m 0 min 0 min 0 W/m 27,2 km/h (4 Bft) 97,87 %
21.11.2015 01:58 5,1 C 5,6 C 3,9 C 92 % 0 lf 997,4 hPa 0,0 l/m 0 min 0 min 0 W/m 25,1 km/h (4 Bft) 97,87 %
21.11.2015 02:00 5,1 C 5,6 C 3,9 C 92 % 0 lf 997,3 hPa 0,0 l/m 0 min 0 min 0 W/m 27,2 km/h (4 Bft) 95,65 %
21.11.2015 02:02 5,1 C 5,6 C 3,9 C 91 % 1 lf 997,4 hPa 0,0 l/m 0 min 0 min 0 W/m 25,1 km/h (4 Bft) 95,74 %
21.11.2015 02:04 5,1 C 5,6 C 3,9 C 91 % 13 lf 997,4 hPa 0,0 l/m 0 min 2 min 0 W/m 23,0 km/h (4 Bft) 97,87 %
21.11.2015 02:06 5,1 C 5,0 C 3,9 C 91 % 15 lf 997,4 hPa 0,0 l/m 0 min 2 min 0 W/m 16,7 km/h (3 Bft) 95,74 %
21.11.2015 02:08 5,1 C 5,0 C 3,9 C 91 % 15 lf 997,4 hPa 0,0 l/m 0 min 2 min 0 W/m 23,0 km/h (4 Bft) 97,87 %
21.11.2015 02:10 5,1 C 5,0 C 3,9 C 91 % 15 lf 997,5 hPa 0,2 l/m 0 min 2 min 0 W/m 23,0 km/h (4 Bft) 95,74 %
21.11.2015 02:12 5,1 C 4,4 C 3,3 C 91 % 15 lf 997,5 hPa 0,0 l/m 0 min 2 min 0 W/m 20,9 km/h (4 Bft) 97,83 %
21.11.2015 02:14 5,1 C 4,4 C 3,3 C 91 % 15 lf 997,4 hPa 0,2 l/m 0 min 2 min 0 W/m 20,9 km/h (4 Bft) 95,74 %
21.11.2015 02:16 5,1 C 4,4 C 3,3 C 91 % 15 lf 997,4 hPa 0,2 l/m 0 min 2 min 0 W/m 23,0 km/h (4 Bft) 95,74 %
21.11.2015 02:18 5,1 C 4,4 C 3,3 C 91 % 15 lf 997,4 hPa 0,0 l/m 0 min 2 min 0 W/m 27,2 km/h (4 Bft) 93,62 %
21.11.2015 02:20 5,1 C 4,4 C 3,3 C 91 % 15 lf 997,5 hPa 0,2 l/m 0 min 2 min 0 W/m 20,9 km/h (4 Bft) 95,74 %
21.11.2015 02:22 5,1 C 4,4 C 3,3 C 92 % 15 lf 997,4 hPa 0,4 l/m 0 min 2 min 0 W/m 18,8 km/h (3 Bft) 95,74 %
21.11.2015 02:24 5,1 C 4,4 C 3,3 C 92 % 15 lf 997,4 hPa 0,2 l/m 0 min 2 min 0 W/m 23,0 km/h (4 Bft) 97,83 %
21.11.2015 02:26 5,1 C 4,4 C 3,3 C 92 % 15 lf 997,3 hPa 0,2 l/m 0 min 2 min 0 W/m 18,8 km/h (3 Bft) 93,62 %
21.11.2015 02:28 5,0 C 4,4 C 3,3 C 92 % 15 lf 997,2 hPa 0,2 l/m 0 min 2 min 0 W/m 18,8 km/h (3 Bft) 97,87 %
21.11.2015 02:30 4,9 C 4,4 C 3,3 C 92 % 15 lf 997,2 hPa 0,0 l/m 0 min 2 min 0 W/m 25,1 km/h (4 Bft) 97,87 %
21.11.2015 02:32 4,9 C 4,4 C 3,3 C 92 % 15 lf 997,2 hPa 0,0 l/m 0 min 2 min 0 W/m 18,8 km/h (3 Bft) 95,74 %
21.11.2015 02:34 4,9 C 4,4 C 3,3 C 92 % 15 lf 997,1 hPa 0,0 l/m 0 min 2 min 0 W/m 23,0 km/h (4 Bft) 91,49 %
21.11.2015 02:36 4,9 C 4,4 C 3,3 C 92 % 15 lf 997,1 hPa 0,0 l/m 0 min 2 min 0 W/m 23,0 km/h (4 Bft) 97,83 %
21.11.2015 02:38 4,8 C 4,4 C 3,3 C 92 % 15 lf 997,1 hPa 0,2 l/m 0 min 0 min 0 W/m 27,2 km/h (4 Bft) 93,62 %
21.11.2015 02:40 4,8 C 4,4 C 3,3 C 92 % 15 lf 997,0 hPa 0,0 l/m 0 min 0 min 0 W/m 25,1 km/h (4 Bft) 95,74 %
21.11.2015 02:42 4,8 C 4,4 C 3,3 C 93 % 15 lf 997,0 hPa 0,0 l/m 0 min 0 min 0 W/m 23,0 km/h (4 Bft) 93,62 %
21.11.2015 02:44 4,8 C 4,4 C 3,3 C 93 % 15 lf 997,1 hPa 0,0 l/m 0 min 0 min 0 W/m 25,1 km/h (4 Bft) 97,87 %
21.11.2015 02:46 4,8 C 4,4 C 3,3 C 93 % 15 lf 996,9 hPa 0,0 l/m 0 min 0 min 0 W/m 20,9 km/h (4 Bft) 97,83 %
21.11.2015 02:48 4,8 C 4,4 C 3,3 C 93 % 15 lf 997,0 hPa 0,0 l/m 0 min 0 min 0 W/m 23,0 km/h (4 Bft) 95,74 %
21.11.2015 02:50 4,8 C 4,4 C 3,3 C 93 % 15 lf 996,9 hPa 0,0 l/m 0 min 0 min 0 W/m 18,8 km/h (3 Bft) 93,62 %
21.11.2015 02:52 4,7 C 4,4 C 3,3 C 93 % 15 lf 996,9 hPa 0,0 l/m 0 min 0 min 0 W/m 25,1 km/h (4 Bft) 100,00 %
21.11.2015 02:54 4,7 C 4,4 C 3,3 C 93 % 15 lf 996,8 hPa 0,0 l/m 0 min 2 min 0 W/m 23,0 km/h (4 Bft) 100,00 %
21.11.2015 02:56 4,7 C 4,4 C 3,3 C 93 % 15 lf 996,8 hPa 0,0 l/m 0 min 2 min 0 W/m 23,0 km/h (4 Bft) 97,87 %
21.11.2015 02:58 4,7 C 4,4 C 3,3 C 93 % 15 lf 996,8 hPa 0,0 l/m 0 min 2 min 0 W/m 31,4 km/h (5 Bft) 100,00 %
21.11.2015 03:00 4,7 C 4,4 C 3,3 C 93 % 15 lf 996,8 hPa 0,0 l/m 0 min 0 min 0 W/m 25,1 km/h (4 Bft) 91,49 %
21.11.2015 03:02 4,7 C 4,4 C 3,3 C 93 % 15 lf 996,7 hPa 0,0 l/m 0 min 0 min 0 W/m 23,0 km/h (4 Bft) 93,62 %
21.11.2015 03:04 4,7 C 4,4 C 3,3 C 93 % 15 lf 996,7 hPa 0,0 l/m 0 min 0 min 0 W/m 27,2 km/h (4 Bft) 97,87 %
21.11.2015 03:06 4,7 C 4,4 C 3,3 C 94 % 15 lf 996,7 hPa 0,0 l/m 0 min 0 min 0 W/m 20,9 km/h (4 Bft) 89,36 %
21.11.2015 03:08 4,7 C 4,4 C 3,3 C 94 % 15 lf 996,7 hPa 0,0 l/m 0 min 0 min 0 W/m 18,8 km/h (3 Bft) 95,74 %
21.11.2015 03:10 4,7 C 4,4 C 3,3 C 94 % 15 lf 996,5 hPa 0,0 l/m 0 min 0 min 0 W/m 18,8 km/h (3 Bft) 97,83 %
21.11.2015 03:12 4,7 C 4,4 C 3,3 C 93 % 15 lf 996,5 hPa 0,0 l/m 0 min 0 min 0 W/m 18,8 km/h (3 Bft) 95,74 %
21.11.2015 03:14 4,7 C 4,4 C 3,3 C 94 % 15 lf 996,5 hPa 0,0 l/m 0 min 0 min 0 W/m 18,8 km/h (3 Bft) 97,87 %
21.11.2015 03:16 4,6 C 4,4 C 3,3 C 94 % 15 lf 996,5 hPa 0,0 l/m 0 min 0 min 0 W/m 20,9 km/h (4 Bft) 89,36 %
21.11.2015 03:18 4,6 C 4,4 C 3,3 C 94 % 15 lf 996,5 hPa 0,0 l/m 0 min 0 min 0 W/m 23,0 km/h (4 Bft) 91,49 %
21.11.2015 03:20 4,6 C 4,4 C 3,3 C 94 % 15 lf 996,4 hPa 0,0 l/m 0 min 0 min 0 W/m 18,8 km/h (3 Bft) 95,74 %
21.11.2015 03:22 4,6 C 4,4 C 3,3 C 94 % 15 lf 996,5 hPa 0,0 l/m 0 min 0 min 0 W/m 23,0 km/h (4 Bft) 95,65 %
21.11.2015 03:24 4,6 C 4,4 C 3,3 C 94 % 15 lf 996,4 hPa 0,0 l/m 0 min 0 min 0 W/m 27,2 km/h (4 Bft) 89,36 %
21.11.2015 03:26 4,6 C 4,4 C 3,3 C 94 % 15 lf 996,4 hPa 0,0 l/m 0 min 0 min 0 W/m 27,2 km/h (4 Bft) 93,62 %
21.11.2015 03:28 4,6 C 4,4 C 3,3 C 94 % 15 lf 996,4 hPa 0,0 l/m 0 min 0 min 0 W/m 20,9 km/h (4 Bft) 93,62 %
21.11.2015 03:30 4,6 C 4,4 C 3,3 C 94 % 15 lf 996,3 hPa 0,0 l/m 0 min 0 min 0 W/m 23,0 km/h (4 Bft) 89,36 %
21.11.2015 03:32 4,6 C 3,9 C 2,8 C 94 % 15 lf 996,3 hPa 0,0 l/m 0 min 0 min 0 W/m 16,7 km/h (3 Bft) 93,62 %
21.11.2015 03:34 4,6 C 3,9 C 3,3 C 94 % 15 lf 996,3 hPa 0,0 l/m 0 min 0 min 0 W/m 20,9 km/h (4 Bft) 93,48 %
21.11.2015 03:36 4,6 C 3,9 C 2,8 C 94 % 15 lf 996,2 hPa 0,0 l/m 0 min 0 min 0 W/m 18,8 km/h (3 Bft) 93,62 %
21.11.2015 03:38 4,5 C 3,9 C 2,8 C 94 % 15 lf 996,2 hPa 0,0 l/m 0 min 0 min 0 W/m 12,6 km/h (3 Bft) 87,23 %
21.11.2015 03:40 4,5 C 3,9 C 2,8 C 94 % 15 lf 996,2 hPa 0,0 l/m 0 min 0 min 0 W/m 20,9 km/h (4 Bft) 93,62 %
21.11.2015 03:42 4,5 C 3,9 C 2,8 C 94 % 15 lf 996,2 hPa 0,0 l/m 0 min 0 min 0 W/m 18,8 km/h (3 Bft) 89,36 %
21.11.2015 03:44 4,4 C 3,9 C 2,8 C 94 % 15 lf 996,2 hPa 0,0 l/m 0 min 0 min 0 W/m 18,8 km/h (3 Bft) 91,30 %
21.11.2015 03:46 4,4 C 3,9 C 2,8 C 94 % 15 lf 996,2 hPa 0,0 l/m 0 min 0 min 0 W/m 16,7 km/h (3 Bft) 93,62 %
21.11.2015 03:48 4,4 C 3,9 C 2,8 C 94 % 15 lf 996,1 hPa 0,0 l/m 0 min 0 min 0 W/m 12,6 km/h (3 Bft) 91,49 %
21.11.2015 03:50 4,4 C 3,9 C 2,8 C 94 % 15 lf 996,1 hPa 0,0 l/m 0 min 0 min 0 W/m 16,7 km/h (3 Bft) 95,74 %
21.11.2015 03:52 4,4 C 3,9 C 2,8 C 94 % 15 lf 996,1 hPa 0,0 l/m 0 min 0 min 0 W/m 16,7 km/h (3 Bft) 93,62 %
21.11.2015 03:54 4,3 C 3,9 C 2,8 C 94 % 15 lf 996,0 hPa 0,0 l/m 0 min 0 min 0 W/m 16,7 km/h (3 Bft) 93,62 %
21.11.2015 03:56 4,3 C 3,9 C 2,8 C 94 % 15 lf 996,1 hPa 0,0 l/m 0 min 0 min 0 W/m 14,6 km/h (3 Bft) 93,48 %
21.11.2015 03:58 4,3 C 3,9 C 2,8 C 94 % 15 lf 996,1 hPa 0,0 l/m 0 min 0 min 0 W/m 18,8 km/h (3 Bft) 95,74 %
21.11.2015 04:00 4,3 C 3,9 C 2,8 C 94 % 15 lf 996,0 hPa 0,0 l/m 0 min 0 min 0 W/m 25,1 km/h (4 Bft) 91,49 %
21.11.2015 04:02 4,2 C 3,9 C 2,8 C 94 % 15 lf 996,1 hPa 0,0 l/m 0 min 0 min 0 W/m 20,9 km/h (4 Bft) 87,50 %
21.11.2015 04:04 4,2 C 3,9 C 2,8 C 94 % 15 lf 996,0 hPa 0,0 l/m 0 min 0 min 0 W/m 25,1 km/h (4 Bft) 97,87 %
21.11.2015 04:06 4,2 C 3,9 C 2,8 C 94 % 15 lf 996,0 hPa 0,0 l/m 0 min 0 min 0 W/m 16,7 km/h (3 Bft) 97,87 %
21.11.2015 04:08 4,2 C 3,9 C 2,8 C 94 % 15 lf 995,9 hPa 0,0 l/m 0 min 0 min 0 W/m 20,9 km/h (4 Bft) 93,48 %
21.11.2015 04:10 4,2 C 3,9 C 2,8 C 94 % 15 lf 995,9 hPa 0,0 l/m 0 min 0 min 0 W/m 18,8 km/h (3 Bft) 97,87 %
21.11.2015 04:12 4,2 C 3,9 C 2,8 C 94 % 15 lf 995,9 hPa 0,0 l/m 0 min 0 min 0 W/m 18,8 km/h (3 Bft) 97,87 %
21.11.2015 04:14 4,2 C 3,9 C 2,8 C 94 % 15 lf 995,8 hPa 0,0 l/m 0 min 0 min 0 W/m 18,8 km/h (3 Bft) 100,00 %
21.11.2015 04:16 4,2 C 3,9 C 2,8 C 94 % 15 lf 995,9 hPa 0,0 l/m 0 min 0 min 0 W/m 20,9 km/h (4 Bft) 100,00 %
21.11.2015 04:18 4,2 C 3,9 C 2,8 C 94 % 15 lf 995,9 hPa 0,0 l/m 0 min 0 min 0 W/m 23,0 km/h (4 Bft) 97,87 %
21.11.2015 04:20 4,2 C 3,9 C 2,8 C 94 % 15 lf 995,9 hPa 0,0 l/m 0 min 0 min 0 W/m 29,3 km/h (5 Bft) 97,83 %
21.11.2015 04:22 4,2 C 3,9 C 2,8 C 94 % 15 lf 995,9 hPa 0,0 l/m 0 min 0 min 0 W/m 20,9 km/h (4 Bft) 97,87 %
21.11.2015 04:24 4,2 C 3,9 C 2,8 C 94 % 15 lf 996,0 hPa 0,0 l/m 0 min 0 min 0 W/m 27,2 km/h (4 Bft) 100,00 %
21.11.2015 04:26 4,2 C 3,9 C 2,8 C 94 % 15 lf 996,0 hPa 0,0 l/m 0 min 0 min 0 W/m 20,9 km/h (4 Bft) 97,87 %
21.11.2015 04:28 4,1 C 3,9 C 2,8 C 94 % 15 lf 996,0 hPa 0,0 l/m 0 min 0 min 0 W/m 18,8 km/h (3 Bft) 91,49 %
21.11.2015 04:30 4,1 C 3,9 C 2,8 C 94 % 15 lf 996,0 hPa 0,0 l/m 0 min 0 min 0 W/m 18,8 km/h (3 Bft) 100,00 %
21.11.2015 04:32 4,1 C 3,9 C 2,8 C 94 % 15 lf 995,9 hPa 0,0 l/m 0 min 0 min 0 W/m 20,9 km/h (4 Bft) 100,00 %
21.11.2015 04:34 4,1 C 3,9 C 2,8 C 94 % 15 lf 996,0 hPa 0,0 l/m 0 min 0 min 0 W/m 20,9 km/h (4 Bft) 100,00 %
21.11.2015 04:36 4,1 C 3,9 C 2,8 C 94 % 15 lf 995,9 hPa 0,0 l/m 0 min 0 min 0 W/m 18,8 km/h (3 Bft) 97,87 %
21.11.2015 04:38 4,1 C 3,9 C 2,8 C 94 % 15 lf 995,9 hPa 0,0 l/m 0 min 0 min 0 W/m 23,0 km/h (4 Bft) 97,87 %
21.11.2015 04:40 4,1 C 3,9 C 2,8 C 94 % 15 lf 995,9 hPa 0,0 l/m 0 min 0 min 0 W/m 20,9 km/h (4 Bft) 97,87 %
21.11.2015 04:42 4,1 C 3,9 C 2,8 C 94 % 15 lf 996,0 hPa 0,0 l/m 0 min 0 min 0 W/m 25,1 km/h (4 Bft) 97,87 %
21.11.2015 04:44 4,1 C 3,9 C 2,8 C 94 % 15 lf 995,9 hPa 0,0 l/m 0 min 0 min 0 W/m 23,0 km/h (4 Bft) 97,83 %
21.11.2015 04:46 4,1 C 3,9 C 2,8 C 94 % 15 lf 995,9 hPa 0,0 l/m 0 min 0 min 0 W/m 25,1 km/h (4 Bft) 100,00 %
21.11.2015 04:48 4,1 C 3,9 C 2,8 C 94 % 15 lf 996,0 hPa 0,0 l/m 0 min 0 min 0 W/m 23,0 km/h (4 Bft) 100,00 %
21.11.2015 04:50 4,1 C 3,9 C 2,8 C 94 % 15 lf 996,0 hPa 0,0 l/m 0 min 0 min 0 W/m 20,9 km/h (4 Bft) 100,00 %
21.11.2015 04:52 4,1 C 3,9 C 2,8 C 94 % 15 lf 996,0 hPa 0,0 l/m 0 min 0 min 0 W/m 20,9 km/h (4 Bft) 93,62 %
21.11.2015 04:54 4,1 C 3,9 C 2,8 C 94 % 15 lf 996,0 hPa 0,0 l/m 0 min 0 min 0 W/m 18,8 km/h (3 Bft) 100,00 %
21.11.2015 04:56 4,1 C 3,9 C 2,8 C 94 % 15 lf 995,9 hPa 0,0 l/m 0 min 0 min 0 W/m 25,1 km/h (4 Bft) 100,00 %
21.11.2015 04:58 4,1 C 3,9 C 2,8 C 94 % 15 lf 995,9 hPa 0,0 l/m 0 min 0 min 0 W/m 27,2 km/h (4 Bft) 97,87 %
21.11.2015 05:00 4,0 C 3,9 C 2,8 C 94 % 15 lf 995,9 hPa 0,0 l/m 0 min 0 min 0 W/m 29,3 km/h (5 Bft) 97,87 %
21.11.2015 05:02 4,1 C 3,9 C 2,8 C 94 % 15 lf 995,9 hPa 0,0 l/m 0 min 0 min 0 W/m 20,9 km/h (4 Bft) 93,62 %
21.11.2015 05:04 4,1 C 3,9 C 2,8 C 94 % 15 lf 995,9 hPa 0,0 l/m 0 min 0 min 0 W/m 23,0 km/h (4 Bft) 97,87 %
21.11.2015 05:06 4,1 C 3,9 C 2,8 C 94 % 15 lf 995,9 hPa 0,0 l/m 0 min 0 min 0 W/m 20,9 km/h (4 Bft) 93,48 %
21.11.2015 05:08 4,1 C 3,9 C 2,8 C 94 % 15 lf 996,0 hPa 0,0 l/m 0 min 0 min 0 W/m 20,9 km/h (4 Bft) 91,49 %
21.11.2015 05:10 4,1 C 3,9 C 2,8 C 94 % 15 lf 995,9 hPa 0,0 l/m 0 min 0 min 0 W/m 18,8 km/h (3 Bft) 89,36 %
21.11.2015 05:12 4,1 C 3,9 C 2,8 C 94 % 15 lf 995,9 hPa 0,0 l/m 0 min 0 min 0 W/m 16,7 km/h (3 Bft) 93,62 %
21.11.2015 05:14 4,1 C 3,9 C 2,8 C 94 % 15 lf 995,9 hPa 0,0 l/m 0 min 0 min 0 W/m 16,7 km/h (3 Bft) 91,49 %
21.11.2015 05:16 4,1 C 3,9 C 2,8 C 94 % 15 lf 995,8 hPa 0,0 l/m 0 min 0 min 0 W/m 20,9 km/h (4 Bft) 93,62 %
21.11.2015 05:18 4,1 C 3,9 C 2,8 C 94 % 15 lf 995,8 hPa 0,0 l/m 0 min 0 min 0 W/m 16,7 km/h (3 Bft) 91,30 %
21.11.2015 05:20 4,1 C 3,9 C 2,8 C 94 % 15 lf 995,8 hPa 0,0 l/m 0 min 0 min 0 W/m 20,9 km/h (4 Bft) 95,74 %
21.11.2015 05:22 4,1 C 3,9 C 2,8 C 94 % 15 lf 995,8 hPa 0,0 l/m 0 min 0 min 0 W/m 20,9 km/h (4 Bft) 95,74 %
21.11.2015 05:24 4,1 C 3,9 C 2,8 C 94 % 15 lf 995,8 hPa 0,0 l/m 0 min 0 min 0 W/m 27,2 km/h (4 Bft) 95,74 %
21.11.2015 05:26 4,1 C 3,9 C 2,8 C 94 % 15 lf 995,8 hPa 0,0 l/m 0 min 0 min 0 W/m 18,8 km/h (3 Bft) 93,62 %
21.11.2015 05:28 4,1 C 3,9 C 2,8 C 94 % 15 lf 995,8 hPa 0,0 l/m 0 min 0 min 0 W/m 18,8 km/h (3 Bft) 95,74 %
21.11.2015 05:30 4,1 C 3,9 C 2,8 C 94 % 15 lf 995,8 hPa 0,0 l/m 0 min 0 min 0 W/m 14,6 km/h (3 Bft) 93,48 %
21.11.2015 05:32 4,1 C 3,9 C 2,8 C 94 % 15 lf 995,9 hPa 0,0 l/m 0 min 0 min 0 W/m 14,6 km/h (3 Bft) 93,62 %
21.11.2015 05:34 4,2 C 3,9 C 2,8 C 94 % 15 lf 995,8 hPa 0,0 l/m 0 min 0 min 0 W/m 20,9 km/h (4 Bft) 95,74 %
21.11.2015 05:36 4,2 C 3,9 C 2,8 C 94 % 15 lf 995,9 hPa 0,0 l/m 0 min 0 min 0 W/m 20,9 km/h (4 Bft) 89,36 %
21.11.2015 05:38 4,2 C 3,9 C 2,8 C 94 % 15 lf 995,9 hPa 0,0 l/m 0 min 0 min 0 W/m 25,1 km/h (4 Bft) 93,62 %
21.11.2015 05:40 4,1 C 3,9 C 2,8 C 94 % 15 lf 995,9 hPa 0,0 l/m 0 min 0 min 0 W/m 18,8 km/h (3 Bft) 95,74 %
21.11.2015 05:42 4,1 C 3,9 C 2,8 C 94 % 15 lf 995,9 hPa 0,0 l/m 0 min 0 min 0 W/m 23,0 km/h (4 Bft) 95,65 %
21.11.2015 05:44 4,1 C 3,9 C 2,8 C 94 % 15 lf 995,8 hPa 0,0 l/m 0 min 0 min 0 W/m 16,7 km/h (3 Bft) 97,87 %
21.11.2015 05:46 4,1 C 3,9 C 2,2 C 94 % 15 lf 995,8 hPa 0,0 l/m 0 min 0 min 0 W/m 23,0 km/h (4 Bft) 95,74 %
21.11.2015 05:48 4,1 C 3,9 C 2,2 C 94 % 15 lf 995,8 hPa 0,0 l/m 0 min 0 min 0 W/m 20,9 km/h (4 Bft) 95,74 %
21.11.2015 05:50 4,1 C 3,9 C 2,2 C 94 % 15 lf 995,8 hPa 0,0 l/m 0 min 0 min 0 W/m 25,1 km/h (4 Bft) 95,74 %
21.11.2015 05:52 4,1 C 3,9 C 2,8 C 94 % 15 lf 995,7 hPa 0,0 l/m 0 min 0 min 0 W/m 23,0 km/h (4 Bft) 95,74 %
21.11.2015 05:54 4,1 C 3,9 C 2,8 C 94 % 15 lf 995,7 hPa 0,0 l/m 0 min 0 min 0 W/m 16,7 km/h (3 Bft) 97,83 %
21.11.2015 05:56 4,1 C 3,9 C 2,8 C 94 % 15 lf 995,8 hPa 0,0 l/m 0 min 0 min 0 W/m 18,8 km/h (3 Bft) 97,87 %
21.11.2015 05:58 4,1 C 3,9 C 2,8 C 94 % 15 lf 995,8 hPa 0,0 l/m 0 min 0 min 0 W/m 25,1 km/h (4 Bft) 100,00 %
21.11.2015 06:00 4,1 C 3,9 C 2,8 C 94 % 15 lf 995,7 hPa 0,0 l/m 0 min 0 min 0 W/m 25,1 km/h (4 Bft) 100,00 %
21.11.2015 06:02 4,1 C 3,9 C 2,8 C 93 % 15 lf 995,8 hPa 0,0 l/m 0 min 0 min 0 W/m 23,0 km/h (4 Bft) 93,62 %
21.11.2015 06:04 4,1 C 4,4 C 2,8 C 93 % 14 lf 995,6 hPa 0,0 l/m 0 min 0 min 0 W/m 20,9 km/h (4 Bft) 97,83 %
21.11.2015 06:06 4,1 C 3,9 C 2,8 C 93 % 15 lf 995,6 hPa 0,0 l/m 0 min 0 min 0 W/m 27,2 km/h (4 Bft) 93,62 %
21.11.2015 06:08 4,1 C 3,9 C 2,8 C 93 % 15 lf 995,6 hPa 0,0 l/m 0 min 0 min 0 W/m 18,8 km/h (3 Bft) 91,49 %
21.11.2015 06:10 4,1 C 3,9 C 2,8 C 93 % 14 lf 995,6 hPa 0,0 l/m 0 min 0 min 0 W/m 25,1 km/h (4 Bft) 97,87 %
21.11.2015 06:12 4,1 C 3,9 C 2,8 C 93 % 14 lf 995,6 hPa 0,0 l/m 0 min 0 min 0 W/m 27,2 km/h (4 Bft) 97,87 %
21.11.2015 06:14 4,1 C 4,4 C 2,8 C 93 % 14 lf 995,7 hPa 0,0 l/m 0 min 0 min 0 W/m 18,8 km/h (3 Bft) 97,87 %
21.11.2015 06:16 4,1 C 4,4 C 2,8 C 93 % 14 lf 995,7 hPa 0,0 l/m 0 min 0 min 0 W/m 23,0 km/h (4 Bft) 95,74 %
21.11.2015 06:18 4,1 C 4,4 C 2,8 C 93 % 14 lf 995,7 hPa 0,0 l/m 0 min 0 min 0 W/m 18,8 km/h (3 Bft) 97,83 %
21.11.2015 06:20 4,1 C 4,4 C 2,8 C 93 % 14 lf 995,7 hPa 0,0 l/m 0 min 0 min 0 W/m 27,2 km/h (4 Bft) 95,74 %
21.11.2015 06:22 4,1 C 4,4 C 2,8 C 93 % 14 lf 995,5 hPa 0,0 l/m 0 min 0 min 0 W/m 27,2 km/h (4 Bft) 97,87 %
21.11.2015 06:24 4,1 C 4,4 C 2,8 C 93 % 14 lf 995,6 hPa 0,0 l/m 0 min 0 min 0 W/m 20,9 km/h (4 Bft) 97,87 %
21.11.2015 06:26 4,1 C 3,9 C 2,2 C 93 % 14 lf 995,6 hPa 0,0 l/m 0 min 0 min 0 W/m 20,9 km/h (4 Bft) 95,74 %
21.11.2015 06:28 4,0 C 4,4 C 2,2 C 93 % 13 lf 995,5 hPa 0,0 l/m 0 min 0 min 0 W/m 20,9 km/h (4 Bft) 95,65 %
21.11.2015 06:30 4,0 C 3,9 C 2,2 C 93 % 13 lf 995,5 hPa 0,0 l/m 0 min 0 min 0 W/m 18,8 km/h (3 Bft) 95,74 %
21.11.2015 06:32 4,0 C 3,9 C 2,2 C 93 % 12 lf 995,5 hPa 0,0 l/m 0 min 0 min 0 W/m 23,0 km/h (4 Bft) 97,87 %
21.11.2015 06:34 4,0 C 3,9 C 2,2 C 93 % 12 lf 995,4 hPa 0,0 l/m 0 min 0 min 0 W/m 23,0 km/h (4 Bft) 95,74 %
21.11.2015 06:36 3,9 C 3,9 C 2,2 C 93 % 12 lf 995,4 hPa 0,0 l/m 0 min 0 min 0 W/m 16,7 km/h (3 Bft) 95,74 %
21.11.2015 06:38 3,9 C 3,9 C 2,2 C 93 % 12 lf 995,4 hPa 0,0 l/m 0 min 0 min 0 W/m 14,6 km/h (3 Bft) 95,74 %
21.11.2015 06:40 3,9 C 3,9 C 2,2 C 92 % 11 lf 995,4 hPa 0,0 l/m 0 min 0 min 0 W/m 18,8 km/h (3 Bft) 97,83 %
21.11.2015 06:42 3,9 C 3,9 C 2,2 C 92 % 11 lf 995,4 hPa 0,0 l/m 0 min 0 min 0 W/m 14,6 km/h (3 Bft) 97,87 %
21.11.2015 06:44 3,9 C 3,9 C 2,2 C 92 % 10 lf 995,4 hPa 0,0 l/m 0 min 0 min 0 W/m 16,7 km/h (3 Bft) 100,00 %
21.11.2015 06:46 3,8 C 3,9 C 2,2 C 92 % 10 lf 995,4 hPa 0,0 l/m 0 min 0 min 0 W/m 18,8 km/h (3 Bft) 97,87 %
21.11.2015 06:48 3,8 C 3,3 C 2,2 C 92 % 10 lf 995,4 hPa 0,0 l/m 0 min 0 min 0 W/m 10,5 km/h (2 Bft) 97,87 %
21.11.2015 06:50 3,8 C 3,3 C 1,7 C 92 % 10 lf 995,4 hPa 0,0 l/m 0 min 0 min 0 W/m 14,6 km/h (3 Bft) 95,74 %
21.11.2015 06:52 3,8 C 3,3 C 1,7 C 92 % 9 lf 995,4 hPa 0,0 l/m 0 min 0 min 0 W/m 16,7 km/h (3 Bft) 100,00 %
21.11.2015 06:54 3,7 C 3,3 C 1,7 C 92 % 9 lf 995,4 hPa 0,0 l/m 0 min 0 min 0 W/m 14,6 km/h (3 Bft) 100,00 %
21.11.2015 06:56 3,7 C 3,3 C 1,7 C 92 % 9 lf 995,4 hPa 0,0 l/m 0 min 0 min 0 W/m 16,7 km/h (3 Bft) 97,87 %
21.11.2015 06:58 3,7 C 3,3 C 1,7 C 91 % 9 lf 995,4 hPa 0,0 l/m 0 min 0 min 0 W/m 14,6 km/h (3 Bft) 97,87 %
21.11.2015 07:00 3,7 C 3,3 C 1,7 C 91 % 8 lf 995,4 hPa 0,0 l/m 0 min 0 min 0 W/m 18,8 km/h (3 Bft) 93,62 %
21.11.2015 07:02 3,6 C 3,3 C 1,7 C 91 % 7 lf 995,4 hPa 0,0 l/m 0 min 0 min 0 W/m 16,7 km/h (3 Bft) 95,74 %
21.11.2015 07:04 3,6 C 3,3 C 1,7 C 91 % 7 lf 995,4 hPa 0,0 l/m 0 min 0 min 0 W/m 18,8 km/h (3 Bft) 95,65 %
21.11.2015 07:06 3,6 C 3,3 C 1,7 C 91 % 6 lf 995,4 hPa 0,0 l/m 0 min 0 min 0 W/m 16,7 km/h (3 Bft) 97,87 %
21.11.2015 07:08 3,6 C 3,3 C 1,7 C 91 % 6 lf 995,4 hPa 0,0 l/m 0 min 0 min 0 W/m 14,6 km/h (3 Bft) 95,74 %
21.11.2015 07:10 3,6 C 3,3 C 1,7 C 91 % 5 lf 995,4 hPa 0,0 l/m 0 min 0 min 0 W/m 16,7 km/h (3 Bft) 97,87 %
21.11.2015 07:12 3,5 C 3,3 C 1,7 C 91 % 6 lf 995,4 hPa 0,0 l/m 0 min 0 min 0 W/m 20,9 km/h (4 Bft) 97,87 %
21.11.2015 07:14 3,5 C 3,3 C 2,2 C 91 % 5 lf 995,4 hPa 0,0 l/m 0 min 0 min 0 W/m 16,7 km/h (3 Bft) 97,83 %
21.11.2015 07:16 3,5 C 3,3 C 2,2 C 91 % 5 lf 995,3 hPa 0,0 l/m 0 min 0 min 0 W/m 14,6 km/h (3 Bft) 95,74 %
21.11.2015 07:18 3,5 C 3,3 C 1,7 C 91 % 5 lf 995,3 hPa 0,0 l/m 0 min 0 min 0 W/m 14,6 km/h (3 Bft) 93,62 %
21.11.2015 07:20 3,5 C 3,3 C 2,2 C 91 % 4 lf 995,3 hPa 0,0 l/m 0 min 0 min 0 W/m 14,6 km/h (3 Bft) 97,87 %
21.11.2015 07:22 3,5 C 3,3 C 1,7 C 91 % 4 lf 995,3 hPa 0,0 l/m 0 min 0 min 0 W/m 16,7 km/h (3 Bft) 100,00 %
21.11.2015 07:24 3,4 C 3,3 C 1,7 C 91 % 4 lf 995,3 hPa 0,0 l/m 0 min 0 min 0 W/m 14,6 km/h (3 Bft) 97,87 %
21.11.2015 07:26 3,4 C 2,8 C 1,7 C 91 % 4 lf 995,3 hPa 0,0 l/m 0 min 0 min 0 W/m 12,6 km/h (3 Bft) 95,65 %
21.11.2015 07:28 3,4 C 3,3 C 1,7 C 91 % 4 lf 995,3 hPa 0,0 l/m 0 min 0 min 0 W/m 12,6 km/h (3 Bft) 95,74 %
21.11.2015 07:30 3,4 C 3,3 C 1,7 C 91 % 4 lf 995,3 hPa 0,0 l/m 0 min 0 min 0 W/m 16,7 km/h (3 Bft) 93,62 %
21.11.2015 07:32 3,4 C 3,3 C 1,7 C 91 % 4 lf 995,3 hPa 0,0 l/m 0 min 0 min 0 W/m 12,6 km/h (3 Bft) 95,74 %
21.11.2015 07:34 3,4 C 3,3 C 1,7 C 91 % 4 lf 995,3 hPa 0,0 l/m 0 min 0 min 0 W/m 12,6 km/h (3 Bft) 93,62 %
21.11.2015 07:36 3,4 C 3,3 C 1,7 C 91 % 4 lf 995,4 hPa 0,0 l/m 0 min 0 min 0 W/m 14,6 km/h (3 Bft) 95,74 %
21.11.2015 07:38 3,4 C 3,3 C 1,7 C 91 % 4 lf 995,3 hPa 0,0 l/m 0 min 0 min 0 W/m 12,6 km/h (3 Bft) 97,83 %
21.11.2015 07:40 3,4 C 3,3 C 1,7 C 91 % 4 lf 995,3 hPa 0,0 l/m 0 min 0 min 0 W/m 12,6 km/h (3 Bft) 97,87 %
21.11.2015 07:42 3,3 C 3,3 C 1,7 C 91 % 4 lf 995,4 hPa 0,0 l/m 0 min 0 min 0 W/m 12,6 km/h (3 Bft) 97,87 %
21.11.2015 07:44 3,3 C 2,8 C 1,7 C 91 % 4 lf 995,3 hPa 0,0 l/m 0 min 0 min 0 W/m 8,4 km/h (2 Bft) 97,87 %
21.11.2015 07:46 3,3 C 2,8 C 1,7 C 91 % 4 lf 995,3 hPa 0,0 l/m 0 min 0 min 0 W/m 14,6 km/h (3 Bft) 95,74 %
21.11.2015 07:48 3,3 C 2,8 C 1,7 C 91 % 4 lf 995,4 hPa 0,0 l/m 0 min 0 min 0 W/m 12,6 km/h (3 Bft) 95,74 %
21.11.2015 07:50 3,3 C 2,8 C 1,7 C 91 % 4 lf 995,4 hPa 0,0 l/m 0 min 0 min 0 W/m 14,6 km/h (3 Bft) 97,83 %
21.11.2015 07:52 3,3 C 2,8 C 1,7 C 91 % 4 lf 995,3 hPa 0,0 l/m 0 min 0 min 3 W/m 18,8 km/h (3 Bft) 97,87 %
21.11.2015 07:54 3,3 C 2,8 C 1,7 C 92 % 4 lf 995,3 hPa 0,0 l/m 0 min 0 min 5 W/m 23,0 km/h (4 Bft) 97,87 %
21.11.2015 07:56 3,2 C 3,3 C 1,7 C 92 % 4 lf 995,3 hPa 0,0 l/m 0 min 0 min 5 W/m 20,9 km/h (4 Bft) 93,62 %
21.11.2015 07:58 3,3 C 3,3 C 1,7 C 92 % 4 lf 995,3 hPa 0,0 l/m 0 min 0 min 5 W/m 14,6 km/h (3 Bft) 95,74 %
21.11.2015 08:00 3,2 C 3,3 C 1,7 C 92 % 4 lf 995,3 hPa 0,0 l/m 0 min 0 min 5 W/m 14,6 km/h (3 Bft) 97,87 %
21.11.2015 08:02 3,2 C 3,3 C 1,7 C 92 % 4 lf 995,4 hPa 0,0 l/m 0 min 0 min 5 W/m 16,7 km/h (3 Bft) 97,83 %
21.11.2015 08:04 3,2 C 2,8 C 1,7 C 92 % 4 lf 995,5 hPa 0,0 l/m 0 min 0 min 7 W/m 12,6 km/h (3 Bft) 97,87 %
21.11.2015 08:06 3,2 C 2,8 C 1,7 C 92 % 4 lf 995,6 hPa 0,0 l/m 0 min 0 min 7 W/m 20,9 km/h (4 Bft) 97,87 %
21.11.2015 08:08 3,2 C 2,8 C 1,7 C 92 % 4 lf 995,7 hPa 0,0 l/m 0 min 0 min 7 W/m 14,6 km/h (3 Bft) 95,74 %
21.11.2015 08:10 3,2 C 3,3 C 1,7 C 92 % 4 lf 995,5 hPa 0,0 l/m 0 min 0 min 7 W/m 18,8 km/h (3 Bft) 91,49 %
21.11.2015 08:12 3,2 C 2,8 C 1,7 C 92 % 4 lf 995,5 hPa 0,0 l/m 0 min 0 min 9 W/m 14,6 km/h (3 Bft) 95,74 %
21.11.2015 08:14 3,2 C 3,3 C 1,7 C 92 % 4 lf 995,6 hPa 0,0 l/m 0 min 0 min 9 W/m 16,7 km/h (3 Bft) 93,48 %
21.11.2015 08:16 3,2 C 2,8 C 1,7 C 92 % 3 lf 995,4 hPa 0,0 l/m 0 min 0 min 9 W/m 18,8 km/h (3 Bft) 95,74 %
21.11.2015 08:18 3,2 C 2,8 C 1,7 C 92 % 3 lf 995,4 hPa 0,0 l/m 0 min 0 min 9 W/m 23,0 km/h (4 Bft) 93,62 %
21.11.2015 08:20 3,2 C 3,3 C 1,7 C 92 % 3 lf 995,3 hPa 0,0 l/m 0 min 0 min 11 W/m 20,9 km/h (4 Bft) 91,49 %
21.11.2015 08:22 3,2 C 3,3 C 2,2 C 93 % 3 lf 995,3 hPa 0,0 l/m 0 min 0 min 11 W/m 14,6 km/h (3 Bft) 93,62 %
21.11.2015 08:24 3,2 C 3,3 C 1,7 C 93 % 3 lf 995,3 hPa 0,0 l/m 0 min 0 min 11 W/m 18,8 km/h (3 Bft) 95,65 %
21.11.2015 08:26 3,2 C 3,3 C 1,7 C 93 % 3 lf 995,3 hPa 0,0 l/m 0 min 0 min 11 W/m 20,9 km/h (4 Bft) 85,11 %
21.11.2015 08:28 3,1 C 3,3 C 1,7 C 93 % 2 lf 995,3 hPa 0,0 l/m 0 min 0 min 12 W/m 14,6 km/h (3 Bft) 93,62 %
21.11.2015 08:30 3,1 C 3,3 C 1,7 C 93 % 2 lf 995,3 hPa 0,0 l/m 0 min 0 min 12 W/m 16,7 km/h (3 Bft) 93,62 %
21.11.2015 08:32 3,1 C 2,8 C 1,7 C 93 % 2 lf 995,3 hPa 0,0 l/m 0 min 0 min 12 W/m 14,6 km/h (3 Bft) 91,49 %
21.11.2015 08:34 3,1 C 3,3 C 1,7 C 93 % 2 lf 995,3 hPa 0,0 l/m 0 min 0 min 12 W/m 16,7 km/h (3 Bft) 91,49 %
21.11.2015 08:36 3,1 C 3,3 C 1,7 C 93 % 2 lf 995,3 hPa 0,0 l/m 0 min 0 min 13 W/m 14,6 km/h (3 Bft) 91,30 %
21.11.2015 08:38 3,1 C 3,3 C 1,7 C 93 % 1 lf 995,3 hPa 0,0 l/m 0 min 0 min 14 W/m 14,6 km/h (3 Bft) 91,49 %
21.11.2015 08:40 3,1 C 2,8 C 1,7 C 93 % 1 lf 995,5 hPa 0,0 l/m 0 min 0 min 14 W/m 14,6 km/h (3 Bft) 95,74 %
21.11.2015 08:42 3,0 C 2,8 C 1,7 C 93 % 1 lf 995,4 hPa 0,0 l/m 0 min 0 min 14 W/m 14,6 km/h (3 Bft) 89,36 %
21.11.2015 08:44 3,0 C 2,8 C 1,7 C 93 % 1 lf 995,4 hPa 0,0 l/m 0 min 0 min 15 W/m 16,7 km/h (3 Bft) 91,49 %
21.11.2015 08:46 3,0 C 2,8 C 1,7 C 93 % 1 lf 995,5 hPa 0,0 l/m 0 min 0 min 16 W/m 14,6 km/h (3 Bft) 91,49 %
21.11.2015 08:48 2,9 C 2,8 C 1,7 C 93 % 1 lf 995,4 hPa 0,0 l/m 0 min 0 min 16 W/m 16,7 km/h (3 Bft) 91,30 %
21.11.2015 08:50 2,9 C 2,8 C 1,7 C 93 % 0 lf 995,5 hPa 0,0 l/m 0 min 0 min 16 W/m 16,7 km/h (3 Bft) 91,49 %
21.11.2015 08:52 2,9 C 2,8 C 1,7 C 93 % 0 lf 995,6 hPa 0,0 l/m 0 min 0 min 17 W/m 12,6 km/h (3 Bft) 93,62 %
21.11.2015 08:54 2,9 C 2,8 C 1,7 C 93 % 0 lf 995,7 hPa 0,0 l/m 0 min 0 min 18 W/m 14,6 km/h (3 Bft) 89,36 %
21.11.2015 08:56 2,9 C 2,8 C 1,7 C 93 % 0 lf 995,7 hPa 0,0 l/m 0 min 0 min 18 W/m 18,8 km/h (3 Bft) 91,49 %
21.11.2015 08:58 2,9 C 2,8 C 1,7 C 93 % 0 lf 995,8 hPa 0,0 l/m 0 min 0 min 18 W/m 23,0 km/h (4 Bft) 91,49 %
21.11.2015 09:00 2,9 C 2,8 C 1,7 C 93 % 0 lf 995,8 hPa 0,0 l/m 0 min 0 min 19 W/m 20,9 km/h (4 Bft) 91,30 %
21.11.2015 09:02 2,8 C 2,8 C 1,7 C 93 % 0 lf 995,8 hPa 0,0 l/m 0 min 0 min 19 W/m 16,7 km/h (3 Bft) 95,74 %
21.11.2015 09:04 2,8 C 2,8 C 1,7 C 93 % 0 lf 995,8 hPa 0,0 l/m 0 min 0 min 21 W/m 12,6 km/h (3 Bft) 95,74 %
21.11.2015 09:06 2,8 C 2,8 C 1,7 C 93 % 0 lf 995,7 hPa 0,0 l/m 0 min 0 min 21 W/m 16,7 km/h (3 Bft) 95,74 %
21.11.2015 09:08 2,8 C 2,8 C 1,7 C 93 % 0 lf 995,8 hPa 0,0 l/m 0 min 0 min 24 W/m 16,7 km/h (3 Bft) 95,74 %
21.11.2015 09:10 2,8 C 2,8 C 1,7 C 93 % 0 lf 995,7 hPa 0,0 l/m 0 min 0 min 30 W/m 18,8 km/h (3 Bft) 93,62 %
21.11.2015 09:12 2,8 C 3,3 C 1,7 C 93 % 0 lf 995,7 hPa 0,0 l/m 0 min 0 min 40 W/m 18,8 km/h (3 Bft) 95,65 %
21.11.2015 09:14 2,8 C 3,3 C 1,7 C 93 % 0 lf 995,7 hPa 0,0 l/m 0 min 0 min 55 W/m 20,9 km/h (4 Bft) 97,87 %
21.11.2015 09:16 2,8 C 3,3 C 1,7 C 93 % 0 lf 995,7 hPa 0,0 l/m 2 min 0 min 77 W/m 16,7 km/h (3 Bft) 97,87 %
21.11.2015 09:18 2,8 C 3,3 C 1,7 C 93 % 0 lf 995,8 hPa 0,0 l/m 2 min 0 min 89 W/m 14,6 km/h (3 Bft) 100,00 %
21.11.2015 09:20 2,8 C 3,3 C 1,7 C 93 % 0 lf 995,7 hPa 0,0 l/m 2 min 0 min 93 W/m 14,6 km/h (3 Bft) 100,00 %
21.11.2015 09:22 2,8 C 3,3 C 1,7 C 93 % 0 lf 995,7 hPa 0,0 l/m 2 min 0 min 97 W/m 20,9 km/h (4 Bft) 97,83 %
21.11.2015 09:24 2,8 C 3,3 C 1,7 C 93 % 0 lf 995,7 hPa 0,0 l/m 2 min 0 min 101 W/m 16,7 km/h (3 Bft) 97,87 %
21.11.2015 09:26 2,8 C 3,3 C 1,7 C 93 % 0 lf 995,7 hPa 0,0 l/m 2 min 0 min 105 W/m 12,6 km/h (3 Bft) 100,00 %
21.11.2015 09:28 2,8 C 3,3 C 2,2 C 93 % 0 lf 995,5 hPa 0,0 l/m 2 min 0 min 109 W/m 16,7 km/h (3 Bft) 95,74 %
21.11.2015 09:30 2,8 C 3,3 C 2,2 C 93 % 0 lf 995,6 hPa 0,0 l/m 2 min 0 min 114 W/m 10,5 km/h (2 Bft) 97,87 %
21.11.2015 09:32 2,8 C 3,9 C 2,2 C 93 % 0 lf 995,6 hPa 0,0 l/m 2 min 0 min 118 W/m 14,6 km/h (3 Bft) 97,87 %
21.11.2015 09:34 2,8 C 3,9 C 2,2 C 93 % 0 lf 995,4 hPa 0,0 l/m 2 min 0 min 122 W/m 20,9 km/h (4 Bft) 93,48 %
21.11.2015 09:36 2,9 C 3,9 C 2,2 C 93 % 0 lf 995,4 hPa 0,0 l/m 2 min 0 min 124 W/m 16,7 km/h (3 Bft) 100,00 %
21.11.2015 09:38 2,9 C 3,9 C 2,2 C 93 % 0 lf 995,4 hPa 0,0 l/m 2 min 0 min 128 W/m 10,5 km/h (2 Bft) 97,87 %
21.11.2015 09:40 2,9 C 3,9 C 2,2 C 93 % 0 lf 995,4 hPa 0,0 l/m 2 min 0 min 133 W/m 14,6 km/h (3 Bft) 97,87 %
21.11.2015 09:42 2,9 C 3,9 C 2,2 C 92 % 0 lf 995,5 hPa 0,0 l/m 2 min 0 min 138 W/m 16,7 km/h (3 Bft) 100,00 %
21.11.2015 09:44 3,0 C 3,9 C 2,2 C 93 % 0 lf 995,3 hPa 0,0 l/m 2 min 0 min 142 W/m 16,7 km/h (3 Bft) 100,00 %
21.11.2015 09:46 3,0 C 3,9 C 2,2 C 93 % 0 lf 995,4 hPa 0,0 l/m 2 min 0 min 146 W/m 12,6 km/h (3 Bft) 100,00 %
21.11.2015 09:48 3,1 C 3,9 C 2,2 C 93 % 0 lf 995,4 hPa 0,0 l/m 2 min 0 min 149 W/m 20,9 km/h (4 Bft) 98,11 %
21.11.2015 09:50 3,1 C 3,9 C 2,2 C 93 % 0 lf 995,5 hPa 0,0 l/m 2 min 0 min 153 W/m 23,0 km/h (4 Bft) 96,00 %
21.11.2015 09:52 3,1 C 3,9 C 2,2 C 92 % 0 lf 995,4 hPa 0,0 l/m 2 min 0 min 157 W/m 16,7 km/h (3 Bft) 96,00 %
21.11.2015 09:54 3,2 C 4,4 C 2,2 C 92 % 0 lf 995,4 hPa 0,0 l/m 2 min 0 min 161 W/m 18,8 km/h (3 Bft) 100,00 %
21.11.2015 09:56 3,2 C 4,4 C 2,8 C 92 % 0 lf 995,4 hPa 0,0 l/m 2 min 0 min 165 W/m 18,8 km/h (3 Bft) 100,00 %
21.11.2015 09:58 3,2 C 4,4 C 2,8 C 92 % 0 lf 995,4 hPa 0,0 l/m 2 min 0 min 168 W/m 18,8 km/h (3 Bft) 98,11 %
21.11.2015 10:00 3,3 C 5,0 C 2,8 C 92 % 0 lf 995,4 hPa 0,0 l/m 2 min 0 min 172 W/m 20,9 km/h (4 Bft) 100,00 %
21.11.2015 10:02 3,3 C 5,0 C 2,8 C 92 % 0 lf 995,5 hPa 0,0 l/m 2 min 0 min 176 W/m 20,9 km/h (4 Bft) 100,00 %
21.11.2015 10:04 3,3 C 5,0 C 2,8 C 92 % 0 lf 995,4 hPa 0,0 l/m 2 min 0 min 180 W/m 14,6 km/h (3 Bft) 95,74 %
21.11.2015 10:06 3,4 C 5,6 C 2,8 C 92 % 0 lf 995,5 hPa 0,0 l/m 2 min 0 min 249 W/m 16,7 km/h (3 Bft) 100,00 %
21.11.2015 10:08 3,4 C 7,2 C 2,8 C 92 % 0 lf 995,5 hPa 0,0 l/m 2 min 0 min 283 W/m 16,7 km/h (3 Bft) 96,23 %
21.11.2015 10:10 3,4 C 7,2 C 2,8 C 92 % 0 lf 995,5 hPa 0,0 l/m 2 min 0 min 279 W/m 18,8 km/h (3 Bft) 95,92 %
21.11.2015 10:12 3,5 C 7,2 C 2,8 C 92 % 0 lf 995,5 hPa 0,0 l/m 2 min 0 min 280 W/m 20,9 km/h (4 Bft) 98,00 %
21.11.2015 10:14 3,6 C 7,2 C 2,8 C 92 % 0 lf 995,6 hPa 0,0 l/m 2 min 0 min 281 W/m 20,9 km/h (4 Bft) 100,00 %
21.11.2015 10:16 3,6 C 7,8 C 2,8 C 92 % 0 lf 995,5 hPa 0,0 l/m 2 min 0 min 285 W/m 18,8 km/h (3 Bft) 100,00 %
21.11.2015 10:18 3,7 C 7,8 C 2,8 C 92 % 0 lf 995,5 hPa 0,0 l/m 2 min 0 min 287 W/m 25,1 km/h (4 Bft) 100,00 %
21.11.2015 10:20 3,7 C 7,8 C 2,8 C 92 % 0 lf 995,4 hPa 0,0 l/m 2 min 0 min 265 W/m 20,9 km/h (4 Bft) 95,74 %
21.11.2015 10:22 3,8 C 7,8 C 2,8 C 91 % 0 lf 995,3 hPa 0,0 l/m 2 min 0 min 216 W/m 25,1 km/h (4 Bft) 97,96 %
21.11.2015 10:24 3,8 C 7,8 C 2,8 C 91 % 0 lf 995,4 hPa 0,0 l/m 2 min 0 min 219 W/m 23,0 km/h (4 Bft) 97,87 %
21.11.2015 10:26 3,9 C 7,8 C 3,3 C 91 % 0 lf 995,3 hPa 0,0 l/m 2 min 0 min 224 W/m 20,9 km/h (4 Bft) 98,00 %
21.11.2015 10:28 3,9 C 8,3 C 3,3 C 91 % 0 lf 995,3 hPa 0,0 l/m 2 min 0 min 232 W/m 20,9 km/h (4 Bft) 100,00 %
21.11.2015 10:30 4,0 C 8,9 C 3,3 C 91 % 0 lf 995,2 hPa 0,0 l/m 2 min 0 min 241 W/m 14,6 km/h (3 Bft) 97,83 %
21.11.2015 10:32 4,1 C 10,0 C 3,3 C 91 % 0 lf 995,2 hPa 0,0 l/m 2 min 0 min 251 W/m 12,6 km/h (3 Bft) 97,87 %
21.11.2015 10:34 4,1 C 11,7 C 3,3 C 91 % 0 lf 995,2 hPa 0,0 l/m 2 min 0 min 267 W/m 18,8 km/h (3 Bft) 100,00 %
21.11.2015 10:36 4,2 C 11,1 C 3,9 C 90 % 0 lf 995,2 hPa 0,0 l/m 2 min 0 min 290 W/m 18,8 km/h (3 Bft) 100,00 %
21.11.2015 10:38 4,2 C 12,2 C 3,9 C 91 % 0 lf 995,2 hPa 0,0 l/m 2 min 0 min 311 W/m 20,9 km/h (4 Bft) 100,00 %
21.11.2015 10:40 4,3 C 12,2 C 3,9 C 90 % 0 lf 995,2 hPa 0,0 l/m 2 min 0 min 331 W/m 23,0 km/h (4 Bft) 100,00 %
21.11.2015 10:42 4,4 C 12,8 C 4,4 C 90 % 0 lf 995,2 hPa 0,0 l/m 2 min 0 min 344 W/m 23,0 km/h (4 Bft) 98,00 %
21.11.2015 10:44 4,6 C 12,8 C 4,4 C 90 % 0 lf 995,2 hPa 0,0 l/m 2 min 0 min 355 W/m 25,1 km/h (4 Bft) 97,96 %
21.11.2015 10:46 4,7 C 13,3 C 4,4 C 89 % 0 lf 995,3 hPa 0,0 l/m 2 min 0 min 363 W/m 31,4 km/h (5 Bft) 95,74 %
21.11.2015 10:48 4,8 C 13,9 C 5,0 C 89 % 0 lf 995,3 hPa 0,0 l/m 2 min 0 min 369 W/m 23,0 km/h (4 Bft) 97,14 %
21.11.2015 10:50 4,9 C 13,9 C 5,0 C 89 % 0 lf 995,2 hPa 0,0 l/m 2 min 0 min 375 W/m 27,2 km/h (4 Bft) 95,74 %
21.11.2015 10:52 5,0 C 13,9 C 5,0 C 88 % 0 lf 995,2 hPa 0,0 l/m 2 min 0 min 380 W/m 23,0 km/h (4 Bft) 98,11 %
21.11.2015 10:54 5,1 C 13,9 C 5,0 C 88 % 0 lf 995,2 hPa 0,0 l/m 2 min 0 min 382 W/m 14,6 km/h (3 Bft) 98,00 %
21.11.2015 10:56 5,2 C 13,9 C 5,0 C 87 % 0 lf 995,2 hPa 0,0 l/m 2 min 0 min 387 W/m 27,2 km/h (4 Bft) 93,88 %
21.11.2015 10:58 5,3 C 12,2 C 5,0 C 87 % 0 lf 995,2 hPa 0,0 l/m 2 min 0 min 391 W/m 29,3 km/h (5 Bft) 94,29 %
21.11.2015 11:00 5,4 C 12,8 C 5,0 C 86 % 0 lf 995,2 hPa 0,0 l/m 2 min 0 min 395 W/m 27,2 km/h (4 Bft) 94,34 %
21.11.2015 11:02 5,6 C 14,4 C 5,6 C 86 % 0 lf 995,2 hPa 0,0 l/m 2 min 0 min 407 W/m 18,8 km/h (3 Bft) 95,92 %
21.11.2015 11:04 5,7 C 15,6 C 5,6 C 86 % 0 lf 995,2 hPa 0,0 l/m 2 min 0 min 410 W/m 23,0 km/h (4 Bft) 91,49 %
21.11.2015 11:06 5,8 C 14,4 C 5,6 C 85 % 0 lf 995,2 hPa 0,0 l/m 2 min 0 min 398 W/m 27,2 km/h (4 Bft) 95,74 %
21.11.2015 11:08 5,9 C 13,3 C 5,6 C 85 % 0 lf 995,3 hPa 0,0 l/m 2 min 0 min 274 W/m 29,3 km/h (5 Bft) 93,48 %
21.11.2015 11:10 5,9 C 13,9 C 5,0 C 84 % 0 lf 995,2 hPa 0,0 l/m 2 min 0 min 400 W/m 31,4 km/h (5 Bft) 94,00 %
21.11.2015 11:12 6,0 C 13,9 C 5,0 C 84 % 0 lf 995,2 hPa 0,0 l/m 2 min 0 min 387 W/m 29,3 km/h (5 Bft) 91,49 %
21.11.2015 11:14 6,0 C 11,1 C 5,0 C 83 % 0 lf 995,2 hPa 0,0 l/m 2 min 0 min 348 W/m 31,4 km/h (5 Bft) 89,36 %
21.11.2015 11:16 6,0 C 10,6 C 5,0 C 82 % 0 lf 995,2 hPa 0,0 l/m 2 min 0 min 232 W/m 23,0 km/h (4 Bft) 93,48 %
21.11.2015 11:18 6,0 C 10,0 C 5,0 C 82 % 0 lf 995,3 hPa 0,0 l/m 2 min 0 min 185 W/m 25,1 km/h (4 Bft) 91,49 %
21.11.2015 11:20 6,0 C 9,4 C 5,0 C 82 % 0 lf 995,4 hPa 0,0 l/m 2 min 0 min 153 W/m 29,3 km/h (5 Bft) 89,36 %
21.11.2015 11:22 5,9 C 8,3 C 5,0 C 82 % 0 lf 995,4 hPa 0,0 l/m 2 min 0 min 159 W/m 27,2 km/h (4 Bft) 94,29 %
21.11.2015 11:24 5,9 C 7,8 C 5,0 C 82 % 0 lf 995,4 hPa 0,0 l/m 0 min 0 min 143 W/m 23,0 km/h (4 Bft) 91,49 %
21.11.2015 11:26 5,8 C 7,2 C 4,4 C 82 % 0 lf 995,5 hPa 0,0 l/m 0 min 0 min 109 W/m 27,2 km/h (4 Bft) 89,36 %
21.11.2015 11:28 5,8 C 6,7 C 4,4 C 82 % 0 lf 995,5 hPa 0,0 l/m 0 min 0 min 93 W/m 29,3 km/h (5 Bft) 93,62 %
21.11.2015 11:30 5,7 C 6,7 C 4,4 C 82 % 0 lf 995,4 hPa 0,0 l/m 0 min 0 min 94 W/m 23,0 km/h (4 Bft) 93,62 %
21.11.2015 11:32 5,6 C 6,1 C 4,4 C 82 % 0 lf 995,4 hPa 0,0 l/m 0 min 0 min 111 W/m 25,1 km/h (4 Bft) 89,13 %
21.11.2015 11:34 5,5 C 6,1 C 3,9 C 82 % 0 lf 995,3 hPa 0,0 l/m 0 min 0 min 93 W/m 27,2 km/h (4 Bft) 90,57 %
21.11.2015 11:36 5,4 C 6,7 C 3,9 C 82 % 0 lf 995,3 hPa 0,0 l/m 0 min 0 min 102 W/m 20,9 km/h (4 Bft) 92,00 %
21.11.2015 11:38 5,4 C 6,7 C 4,4 C 82 % 0 lf 995,4 hPa 0,0 l/m 0 min 0 min 132 W/m 25,1 km/h (4 Bft) 94,00 %
21.11.2015 11:40 5,4 C 6,7 C 4,4 C 83 % 0 lf 995,4 hPa 0,0 l/m 0 min 0 min 153 W/m 18,8 km/h (3 Bft) 93,48 %
21.11.2015 11:42 5,3 C 7,2 C 4,4 C 83 % 0 lf 995,3 hPa 0,0 l/m 2 min 0 min 177 W/m 23,0 km/h (4 Bft) 93,62 %
21.11.2015 11:44 5,3 C 7,8 C 4,4 C 83 % 0 lf 995,3 hPa 0,0 l/m 2 min 0 min 209 W/m 16,7 km/h (3 Bft) 89,36 %
21.11.2015 11:46 5,3 C 8,9 C 4,4 C 83 % 0 lf 995,3 hPa 0,0 l/m 2 min 0 min 208 W/m 16,7 km/h (3 Bft) 87,23 %
21.11.2015 11:48 5,3 C 10,0 C 4,4 C 83 % 0 lf 995,4 hPa 0,0 l/m 2 min 0 min 325 W/m 25,1 km/h (4 Bft) 93,62 %
21.11.2015 11:50 5,3 C 11,7 C 4,4 C 83 % 0 lf 995,3 hPa 0,0 l/m 2 min 0 min 346 W/m 20,9 km/h (4 Bft) 94,29 %
21.11.2015 11:52 5,4 C 12,8 C 4,4 C 83 % 0 lf 995,2 hPa 0,0 l/m 2 min 0 min 337 W/m 14,6 km/h (3 Bft) 98,11 %
21.11.2015 11:54 5,4 C 12,8 C 5,0 C 83 % 0 lf 995,2 hPa 0,0 l/m 2 min 0 min 334 W/m 16,7 km/h (3 Bft) 96,00 %
21.11.2015 11:56 5,5 C 11,7 C 5,0 C 83 % 0 lf 995,2 hPa 0,0 l/m 2 min 0 min 334 W/m 20,9 km/h (4 Bft) 95,92 %
21.11.2015 11:58 5,6 C 10,6 C 4,4 C 83 % 0 lf 995,2 hPa 0,0 l/m 2 min 0 min 330 W/m 25,1 km/h (4 Bft) 97,14 %
21.11.2015 12:00 5,6 C 11,7 C 4,4 C 83 % 0 lf 995,2 hPa 0,0 l/m 2 min 0 min 331 W/m 33,5 km/h (5 Bft) 96,23 %
21.11.2015 12:02 5,7 C 9,4 C 4,4 C 83 % 0 lf 995,2 hPa 0,0 l/m 2 min 0 min 242 W/m 31,4 km/h (5 Bft) 94,00 %
21.11.2015 12:04 5,6 C 8,3 C 4,4 C 82 % 0 lf 995,1 hPa 0,0 l/m 0 min 0 min 160 W/m 31,4 km/h (5 Bft) 91,84 %
21.11.2015 12:06 5,6 C 10,0 C 4,4 C 82 % 0 lf 995,1 hPa 0,0 l/m 2 min 0 min 246 W/m 23,0 km/h (4 Bft) 100,00 %
21.11.2015 12:08 5,6 C 11,1 C 5,0 C 82 % 0 lf 995,1 hPa 0,0 l/m 2 min 0 min 371 W/m 20,9 km/h (4 Bft) 96,49 %
21.11.2015 12:10 5,7 C 11,7 C 5,0 C 82 % 0 lf 995,1 hPa 0,0 l/m 2 min 0 min 328 W/m 25,1 km/h (4 Bft) 97,87 %
21.11.2015 12:12 5,7 C 11,1 C 5,0 C 82 % 0 lf 995,0 hPa 0,0 l/m 2 min 0 min 352 W/m 25,1 km/h (4 Bft) 91,89 %
21.11.2015 12:14 5,7 C 9,4 C 4,4 C 82 % 0 lf 995,0 hPa 0,0 l/m 2 min 0 min 241 W/m 27,2 km/h (4 Bft) 95,74 %
21.11.2015 12:16 5,7 C 9,4 C 4,4 C 82 % 0 lf 995,0 hPa 0,0 l/m 2 min 0 min 199 W/m 27,2 km/h (4 Bft) 96,30 %
21.11.2015 12:18 5,7 C 10,0 C 4,4 C 81 % 0 lf 995,1 hPa 0,0 l/m 2 min 0 min 322 W/m 25,1 km/h (4 Bft) 91,84 %
21.11.2015 12:20 5,7 C 9,4 C 5,0 C 81 % 0 lf 995,1 hPa 0,0 l/m 2 min 0 min 361 W/m 31,4 km/h (5 Bft) 94,59 %
21.11.2015 12:22 5,7 C 9,4 C 5,0 C 81 % 0 lf 995,1 hPa 0,0 l/m 2 min 0 min 290 W/m 20,9 km/h (4 Bft) 96,55 %
21.11.2015 12:24 5,7 C 8,3 C 5,0 C 81 % 0 lf 995,1 hPa 0,0 l/m 2 min 0 min 172 W/m 29,3 km/h (5 Bft) 97,87 %
21.11.2015 12:26 5,6 C 6,7 C 4,4 C 81 % 0 lf 995,1 hPa 0,0 l/m 0 min 0 min 98 W/m 29,3 km/h (5 Bft) 95,74 %
21.11.2015 12:28 5,6 C 6,7 C 4,4 C 80 % 0 lf 995,0 hPa 0,0 l/m 0 min 0 min 77 W/m 25,1 km/h (4 Bft) 97,87 %
21.11.2015 12:30 5,6 C 7,2 C 3,9 C 80 % 0 lf 995,0 hPa 0,0 l/m 0 min 0 min 147 W/m 25,1 km/h (4 Bft) 97,83 %
21.11.2015 12:32 5,4 C 6,7 C 3,9 C 80 % 0 lf 995,0 hPa 0,0 l/m 0 min 0 min 100 W/m 27,2 km/h (4 Bft) 97,22 %
21.11.2015 12:34 5,4 C 8,3 C 3,9 C 80 % 0 lf 995,0 hPa 0,0 l/m 2 min 0 min 162 W/m 20,9 km/h (4 Bft) 97,87 %
21.11.2015 12:36 5,4 C 8,9 C 3,9 C 80 % 0 lf 995,0 hPa 0,0 l/m 2 min 0 min 197 W/m 25,1 km/h (4 Bft) 95,74 %
21.11.2015 12:38 5,4 C 8,9 C 4,4 C 80 % 0 lf 995,1 hPa 0,0 l/m 2 min 0 min 164 W/m 23,0 km/h (4 Bft) 96,36 %
21.11.2015 12:40 5,4 C 8,9 C 4,4 C 80 % 0 lf 995,0 hPa 0,0 l/m 2 min 0 min 284 W/m 14,6 km/h (3 Bft) 96,00 %
21.11.2015 12:42 5,4 C 8,3 C 4,4 C 81 % 0 lf 995,0 hPa 0,0 l/m 0 min 0 min 124 W/m 12,6 km/h (3 Bft) 97,14 %
21.11.2015 12:44 5,4 C 8,9 C 4,4 C 81 % 0 lf 995,0 hPa 0,0 l/m 0 min 0 min 153 W/m 14,6 km/h (3 Bft) 100,00 %
21.11.2015 12:46 5,4 C 10,6 C 4,4 C 81 % 0 lf 995,0 hPa 0,0 l/m 2 min 0 min 332 W/m 16,7 km/h (3 Bft) 97,87 %
21.11.2015 12:48 5,4 C 12,2 C 4,4 C 81 % 0 lf 995,0 hPa 0,0 l/m 2 min 0 min 254 W/m 18,8 km/h (3 Bft) 97,87 %
21.11.2015 12:50 5,5 C 12,2 C 5,0 C 81 % 0 lf 995,0 hPa 0,0 l/m 2 min 0 min 227 W/m 16,7 km/h (3 Bft) 100,00 %
21.11.2015 12:52 5,6 C 10,6 C 5,0 C 82 % 0 lf 995,0 hPa 0,0 l/m 0 min 0 min 152 W/m 27,2 km/h (4 Bft) 95,74 %
21.11.2015 12:54 5,6 C 9,4 C 5,0 C 81 % 0 lf 995,0 hPa 0,0 l/m 2 min 0 min 186 W/m 29,3 km/h (5 Bft) 100,00 %
21.11.2015 12:56 5,6 C 8,3 C 5,0 C 81 % 0 lf 994,9 hPa 0,0 l/m 2 min 0 min 163 W/m 23,0 km/h (4 Bft) 100,00 %
21.11.2015 12:58 5,7 C 7,8 C 5,0 C 81 % 0 lf 994,9 hPa 0,0 l/m 0 min 0 min 139 W/m 23,0 km/h (4 Bft) 97,87 %
21.11.2015 13:00 5,7 C 7,8 C 5,0 C 81 % 0 lf 995,0 hPa 0,0 l/m 0 min 0 min 143 W/m 20,9 km/h (4 Bft) 95,74 %
21.11.2015 13:02 5,7 C 7,2 C 5,0 C 81 % 0 lf 995,0 hPa 0,0 l/m 0 min 0 min 149 W/m 20,9 km/h (4 Bft) 100,00 %
21.11.2015 13:04 5,7 C 7,2 C 5,0 C 81 % 0 lf 995,0 hPa 0,0 l/m 0 min 0 min 151 W/m 27,2 km/h (4 Bft) 100,00 %
21.11.2015 13:06 5,7 C 7,2 C 5,0 C 81 % 0 lf 995,0 hPa 0,0 l/m 2 min 0 min 160 W/m 16,7 km/h (3 Bft) 100,00 %
21.11.2015 13:08 5,7 C 7,8 C 5,0 C 81 % 0 lf 995,0 hPa 0,0 l/m 2 min 0 min 171 W/m 16,7 km/h (3 Bft) 96,08 %
21.11.2015 13:10 5,7 C 7,8 C 5,0 C 81 % 0 lf 995,1 hPa 0,0 l/m 2 min 0 min 172 W/m 23,0 km/h (4 Bft) 100,00 %
21.11.2015 13:12 5,7 C 7,2 C 5,6 C 82 % 0 lf 995,0 hPa 0,0 l/m 2 min 0 min 157 W/m 14,6 km/h (3 Bft) 100,00 %
21.11.2015 13:14 5,7 C 7,2 C 5,6 C 82 % 0 lf 995,1 hPa 0,0 l/m 0 min 0 min 130 W/m 20,9 km/h (4 Bft) 97,83 %
21.11.2015 13:16 5,7 C 6,7 C 5,0 C 81 % 0 lf 995,1 hPa 0,0 l/m 0 min 0 min 114 W/m 23,0 km/h (4 Bft) 97,87 %
21.11.2015 13:18 5,7 C 6,7 C 5,0 C 81 % 0 lf 995,0 hPa 0,0 l/m 0 min 0 min 123 W/m 18,8 km/h (3 Bft) 97,87 %
21.11.2015 13:20 5,7 C 6,7 C 5,0 C 81 % 0 lf 995,1 hPa 0,0 l/m 2 min 0 min 155 W/m 20,9 km/h (4 Bft) 95,74 %
21.11.2015 13:22 5,7 C 6,7 C 5,6 C 81 % 0 lf 995,0 hPa 0,0 l/m 2 min 0 min 162 W/m 18,8 km/h (3 Bft) 95,74 %
21.11.2015 13:24 5,7 C 6,7 C 5,6 C 81 % 0 lf 995,0 hPa 0,0 l/m 2 min 0 min 154 W/m 20,9 km/h (4 Bft) 100,00 %
21.11.2015 13:26 5,7 C 6,7 C 5,6 C 81 % 0 lf 995,0 hPa 0,0 l/m 0 min 0 min 140 W/m 20,9 km/h (4 Bft) 95,74 %
21.11.2015 13:28 5,7 C 6,7 C 5,0 C 81 % 0 lf 995,0 hPa 0,0 l/m 0 min 0 min 119 W/m 25,1 km/h (4 Bft) 97,87 %
21.11.2015 13:30 5,7 C 6,7 C 5,0 C 81 % 0 lf 995,0 hPa 0,0 l/m 0 min 0 min 100 W/m 25,1 km/h (4 Bft) 93,62 %
21.11.2015 13:32 5,7 C 6,7 C 5,0 C 81 % 0 lf 995,0 hPa 0,0 l/m 0 min 0 min 91 W/m 16,7 km/h (3 Bft) 97,87 %
21.11.2015 13:34 5,6 C 6,1 C 5,0 C 81 % 0 lf 995,0 hPa 0,0 l/m 0 min 0 min 76 W/m 23,0 km/h (4 Bft) 95,74 %
21.11.2015 13:36 5,6 C 6,1 C 5,0 C 81 % 0 lf 995,1 hPa 0,0 l/m 0 min 0 min 67 W/m 23,0 km/h (4 Bft) 95,65 %
21.11.2015 13:38 5,6 C 6,1 C 4,4 C 81 % 0 lf 995,0 hPa 0,0 l/m 0 min 0 min 72 W/m 18,8 km/h (3 Bft) 97,87 %
21.11.2015 13:40 5,6 C 6,1 C 4,4 C 81 % 0 lf 995,0 hPa 0,0 l/m 0 min 0 min 83 W/m 16,7 km/h (3 Bft) 95,74 %
21.11.2015 13:42 5,6 C 6,1 C 5,0 C 81 % 0 lf 995,1 hPa 0,0 l/m 0 min 0 min 97 W/m 20,9 km/h (4 Bft) 95,74 %
21.11.2015 13:44 5,6 C 6,1 C 5,0 C 81 % 0 lf 995,1 hPa 0,0 l/m 0 min 0 min 116 W/m 18,8 km/h (3 Bft) 95,74 %
21.11.2015 13:46 5,5 C 6,1 C 5,0 C 81 % 0 lf 995,0 hPa 0,0 l/m 0 min 0 min 108 W/m 20,9 km/h (4 Bft) 95,74 %
21.11.2015 13:48 5,5 C 6,7 C 5,0 C 81 % 0 lf 995,1 hPa 0,0 l/m 0 min 0 min 111 W/m 20,9 km/h (4 Bft) 93,48 %
21.11.2015 13:50 5,5 C 6,7 C 5,0 C 81 % 0 lf 995,1 hPa 0,0 l/m 0 min 0 min 110 W/m 20,9 km/h (4 Bft) 95,74 %
21.11.2015 13:52 5,5 C 6,7 C 5,0 C 82 % 0 lf 995,1 hPa 0,0 l/m 0 min 0 min 115 W/m 18,8 km/h (3 Bft) 95,74 %
21.11.2015 13:54 5,5 C 6,7 C 5,0 C 82 % 0 lf 995,1 hPa 0,0 l/m 2 min 0 min 148 W/m 14,6 km/h (3 Bft) 95,74 %
21.11.2015 13:56 5,5 C 6,7 C 5,0 C 82 % 0 lf 995,2 hPa 0,0 l/m 2 min 0 min 150 W/m 14,6 km/h (3 Bft) 95,74 %
21.11.2015 13:58 5,6 C 6,7 C 5,0 C 82 % 0 lf 995,2 hPa 0,0 l/m 0 min 0 min 133 W/m 14,6 km/h (3 Bft) 94,29 %
21.11.2015 14:00 5,6 C 6,7 C 5,0 C 82 % 0 lf 995,3 hPa 0,0 l/m 0 min 0 min 123 W/m 20,9 km/h (4 Bft) 93,62 %
21.11.2015 14:02 5,6 C 7,2 C 5,0 C 82 % 0 lf 995,3 hPa 0,0 l/m 0 min 0 min 114 W/m 10,5 km/h (2 Bft) 93,62 %
21.11.2015 14:04 5,6 C 6,7 C 5,6 C 82 % 0 lf 995,3 hPa 0,0 l/m 0 min 0 min 106 W/m 18,8 km/h (3 Bft) 93,48 %
21.11.2015 14:06 5,6 C 6,7 C 5,0 C 82 % 0 lf 995,3 hPa 0,0 l/m 0 min 0 min 98 W/m 18,8 km/h (3 Bft) 89,36 %
21.11.2015 14:08 5,6 C 6,1 C 5,0 C 82 % 0 lf 995,3 hPa 0,0 l/m 0 min 0 min 86 W/m 16,7 km/h (3 Bft) 93,62 %
21.11.2015 14:10 5,6 C 6,7 C 5,0 C 82 % 0 lf 995,3 hPa 0,0 l/m 0 min 0 min 80 W/m 14,6 km/h (3 Bft) 95,74 %
21.11.2015 14:12 5,6 C 6,1 C 5,0 C 82 % 0 lf 995,3 hPa 0,0 l/m 0 min 0 min 81 W/m 20,9 km/h (4 Bft) 91,49 %
21.11.2015 14:14 5,6 C 6,1 C 5,0 C 82 % 0 lf 995,3 hPa 0,0 l/m 0 min 0 min 86 W/m 20,9 km/h (4 Bft) 95,65 %
21.11.2015 14:16 5,6 C 6,1 C 5,0 C 82 % 0 lf 995,3 hPa 0,0 l/m 0 min 0 min 92 W/m 18,8 km/h (3 Bft) 95,74 %
21.11.2015 14:18 5,6 C 6,1 C 5,0 C 82 % 0 lf 995,3 hPa 0,0 l/m 0 min 0 min 95 W/m 23,0 km/h (4 Bft) 95,74 %
21.11.2015 14:20 5,6 C 6,1 C 5,0 C 82 % 0 lf 995,3 hPa 0,0 l/m 0 min 0 min 102 W/m 25,1 km/h (4 Bft) 95,74 %
21.11.2015 14:22 5,6 C 6,1 C 5,0 C 81 % 0 lf 995,2 hPa 0,0 l/m 0 min 0 min 105 W/m 18,8 km/h (3 Bft) 93,62 %
21.11.2015 14:24 5,6 C 6,7 C 5,0 C 81 % 0 lf 995,2 hPa 0,0 l/m 0 min 0 min 109 W/m 16,7 km/h (3 Bft) 93,62 %
21.11.2015 14:26 5,6 C 6,7 C 5,0 C 82 % 0 lf 995,4 hPa 0,0 l/m 0 min 0 min 113 W/m 16,7 km/h (3 Bft) 95,65 %
21.11.2015 14:28 5,6 C 6,7 C 5,0 C 82 % 0 lf 995,4 hPa 0,0 l/m 0 min 0 min 113 W/m 16,7 km/h (3 Bft) 93,62 %
21.11.2015 14:30 5,6 C 6,7 C 5,0 C 82 % 0 lf 995,5 hPa 0,0 l/m 2 min 0 min 117 W/m 18,8 km/h (3 Bft) 93,62 %
21.11.2015 14:32 5,6 C 6,7 C 5,0 C 82 % 0 lf 995,5 hPa 0,0 l/m 2 min 0 min 125 W/m 16,7 km/h (3 Bft) 93,62 %
21.11.2015 14:34 5,6 C 6,7 C 5,0 C 82 % 0 lf 995,4 hPa 0,0 l/m 2 min 0 min 125 W/m 18,8 km/h (3 Bft) 93,62 %
21.11.2015 14:36 5,6 C 6,7 C 5,0 C 82 % 0 lf 995,4 hPa 0,0 l/m 2 min 0 min 113 W/m 16,7 km/h (3 Bft) 91,49 %
21.11.2015 14:38 5,6 C 6,7 C 5,0 C 82 % 0 lf 995,4 hPa 0,0 l/m 0 min 0 min 108 W/m 16,7 km/h (3 Bft) 93,48 %
21.11.2015 14:40 5,6 C 6,1 C 5,0 C 82 % 0 lf 995,3 hPa 0,0 l/m 2 min 0 min 114 W/m 18,8 km/h (3 Bft) 95,74 %
21.11.2015 14:42 5,6 C 6,7 C 5,0 C 82 % 0 lf 995,3 hPa 0,0 l/m 2 min 0 min 117 W/m 12,6 km/h (3 Bft) 91,49 %
21.11.2015 14:44 5,6 C 6,7 C 5,0 C 82 % 0 lf 995,3 hPa 0,0 l/m 2 min 0 min 115 W/m 14,6 km/h (3 Bft) 95,74 %
21.11.2015 14:46 5,6 C 6,1 C 5,0 C 82 % 0 lf 995,2 hPa 0,0 l/m 2 min 0 min 113 W/m 14,6 km/h (3 Bft) 91,49 %
21.11.2015 14:48 5,6 C 6,7 C 5,0 C 82 % 0 lf 995,4 hPa 0,0 l/m 2 min 0 min 126 W/m 12,6 km/h (3 Bft) 93,62 %
21.11.2015 14:50 5,6 C 7,2 C 5,6 C 82 % 0 lf 995,4 hPa 0,0 l/m 2 min 0 min 150 W/m 8,4 km/h (2 Bft) 95,65 %
21.11.2015 14:52 5,7 C 7,2 C 5,6 C 82 % 0 lf 995,5 hPa 0,0 l/m 2 min 0 min 167 W/m 16,7 km/h (3 Bft) 95,74 %
21.11.2015 14:54 5,7 C 7,2 C 5,6 C 82 % 0 lf 995,5 hPa 0,0 l/m 2 min 0 min 153 W/m 18,8 km/h (3 Bft) 93,62 %
21.11.2015 14:56 5,7 C 6,7 C 5,6 C 82 % 0 lf 995,5 hPa 0,0 l/m 2 min 0 min 126 W/m 20,9 km/h (4 Bft) 91,49 %
21.11.2015 14:58 5,7 C 6,7 C 5,6 C 82 % 0 lf 995,5 hPa 0,0 l/m 2 min 0 min 107 W/m 16,7 km/h (3 Bft) 97,87 %
21.11.2015 15:00 5,7 C 6,7 C 5,0 C 82 % 0 lf 995,6 hPa 0,0 l/m 2 min 0 min 95 W/m 16,7 km/h (3 Bft) 95,74 %
21.11.2015 15:02 5,7 C 6,7 C 5,0 C 82 % 0 lf 995,6 hPa 0,0 l/m 0 min 0 min 85 W/m 14,6 km/h (3 Bft) 96,30 %
21.11.2015 15:04 5,7 C 6,7 C 5,0 C 82 % 0 lf 995,6 hPa 0,0 l/m 0 min 0 min 73 W/m 10,5 km/h (2 Bft) 95,74 %
21.11.2015 15:06 5,7 C 6,1 C 5,0 C 82 % 0 lf 995,6 hPa 0,0 l/m 0 min 0 min 59 W/m 18,8 km/h (3 Bft) 93,62 %
21.11.2015 15:08 5,7 C 6,1 C 5,0 C 82 % 0 lf 995,7 hPa 0,0 l/m 0 min 0 min 49 W/m 10,5 km/h (2 Bft) 97,87 %
21.11.2015 15:10 5,7 C 6,1 C 5,0 C 82 % 0 lf 995,7 hPa 0,0 l/m 0 min 0 min 43 W/m 6,3 km/h (2 Bft) 93,62 %
21.11.2015 15:12 5,7 C 6,1 C 5,0 C 82 % 0 lf 995,8 hPa 0,0 l/m 0 min 0 min 40 W/m 8,4 km/h (2 Bft) 95,74 %
21.11.2015 15:14 5,7 C 6,1 C 4,4 C 82 % 0 lf 995,7 hPa 0,0 l/m 0 min 0 min 37 W/m 12,6 km/h (3 Bft) 93,48 %
21.11.2015 15:16 5,7 C 6,1 C 4,4 C 82 % 0 lf 995,7 hPa 0,0 l/m 0 min 0 min 33 W/m 12,6 km/h (3 Bft) 95,74 %
21.11.2015 15:18 5,7 C 6,1 C 4,4 C 82 % 0 lf 995,8 hPa 0,0 l/m 0 min 0 min 33 W/m 14,6 km/h (3 Bft) 93,62 %
21.11.2015 15:20 5,6 C 5,6 C 4,4 C 82 % 0 lf 995,8 hPa 0,0 l/m 0 min 0 min 34 W/m 12,6 km/h (3 Bft) 93,62 %
21.11.2015 15:22 5,6 C 5,6 C 4,4 C 82 % 0 lf 995,8 hPa 0,0 l/m 0 min 0 min 35 W/m 18,8 km/h (3 Bft) 93,62 %
21.11.2015 15:24 5,6 C 5,6 C 4,4 C 82 % 0 lf 995,9 hPa 0,0 l/m 0 min 0 min 35 W/m 10,5 km/h (2 Bft) 95,74 %
21.11.2015 15:26 5,6 C 5,6 C 4,4 C 82 % 0 lf 995,9 hPa 0,0 l/m 0 min 0 min 34 W/m 14,6 km/h (3 Bft) 97,83 %
21.11.2015 15:28 5,5 C 5,6 C 4,4 C 82 % 0 lf 996,0 hPa 0,0 l/m 0 min 0 min 32 W/m 14,6 km/h (3 Bft) 95,74 %
21.11.2015 15:30 5,5 C 5,6 C 4,4 C 82 % 0 lf 996,0 hPa 0,0 l/m 0 min 0 min 29 W/m 16,7 km/h (3 Bft) 95,74 %
21.11.2015 15:32 5,5 C 5,6 C 4,4 C 82 % 0 lf 995,9 hPa 0,0 l/m 0 min 0 min 28 W/m 10,5 km/h (2 Bft) 95,74 %
21.11.2015 15:34 5,4 C 5,6 C 4,4 C 82 % 0 lf 996,0 hPa 0,0 l/m 0 min 0 min 28 W/m 10,5 km/h (2 Bft) 95,74 %
21.11.2015 15:36 5,4 C 5,6 C 4,4 C 82 % 0 lf 996,0 hPa 0,0 l/m 0 min 0 min 26 W/m 12,6 km/h (3 Bft) 95,74 %
21.11.2015 15:38 5,4 C 5,6 C 4,4 C 82 % 0 lf 996,0 hPa 0,0 l/m 0 min 0 min 26 W/m 14,6 km/h (3 Bft) 95,65 %
21.11.2015 15:40 5,4 C 5,6 C 4,4 C 83 % 0 lf 996,1 hPa 0,0 l/m 0 min 0 min 28 W/m 12,6 km/h (3 Bft) 91,49 %
21.11.2015 15:42 5,4 C 5,6 C 4,4 C 83 % 0 lf 996,1 hPa 0,0 l/m 0 min 0 min 25 W/m 14,6 km/h (3 Bft) 95,74 %
21.11.2015 15:44 5,4 C 5,6 C 4,4 C 83 % 0 lf 996,2 hPa 0,0 l/m 0 min 0 min 19 W/m 12,6 km/h (3 Bft) 91,49 %
21.11.2015 15:46 5,3 C 5,6 C 4,4 C 83 % 0 lf 996,2 hPa 0,0 l/m 0 min 0 min 16 W/m 14,6 km/h (3 Bft) 95,74 %
21.11.2015 15:48 5,3 C 5,6 C 3,9 C 83 % 0 lf 996,2 hPa 0,0 l/m 0 min 0 min 12 W/m 10,5 km/h (2 Bft) 95,74 %
21.11.2015 15:50 5,3 C 5,6 C 3,9 C 83 % 0 lf 996,3 hPa 0,0 l/m 0 min 0 min 11 W/m 14,6 km/h (3 Bft) 97,83 %
21.11.2015 15:52 5,3 C 5,6 C 3,9 C 83 % 0 lf 996,4 hPa 0,0 l/m 0 min 0 min 11 W/m 10,5 km/h (2 Bft) 95,74 %
21.11.2015 15:54 5,3 C 5,6 C 3,9 C 83 % 0 lf 996,4 hPa 0,0 l/m 0 min 0 min 11 W/m 8,4 km/h (2 Bft) 95,74 %
21.11.2015 15:56 5,3 C 5,0 C 3,9 C 83 % 0 lf 996,5 hPa 0,0 l/m 0 min 0 min 11 W/m 14,6 km/h (3 Bft) 93,62 %
21.11.2015 15:58 5,3 C 5,0 C 3,9 C 84 % 0 lf 996,5 hPa 0,0 l/m 0 min 0 min 12 W/m 12,6 km/h (3 Bft) 97,87 %
21.11.2015 16:00 5,2 C 5,0 C 3,9 C 84 % 0 lf 996,6 hPa 0,0 l/m 0 min 0 min 14 W/m 10,5 km/h (2 Bft) 97,87 %
21.11.2015 16:02 5,2 C 5,0 C 3,9 C 84 % 0 lf 996,6 hPa 0,0 l/m 0 min 0 min 14 W/m 8,4 km/h (2 Bft) 97,83 %
21.11.2015 16:04 5,2 C 5,0 C 3,9 C 84 % 0 lf 996,6 hPa 0,0 l/m 0 min 0 min 14 W/m 10,5 km/h (2 Bft) 97,87 %
21.11.2015 16:06 5,2 C 5,0 C 3,9 C 84 % 0 lf 996,7 hPa 0,0 l/m 0 min 0 min 14 W/m 8,4 km/h (2 Bft) 97,87 %
21.11.2015 16:08 5,2 C 5,0 C 3,9 C 84 % 0 lf 996,8 hPa 0,0 l/m 0 min 0 min 13 W/m 10,5 km/h (2 Bft) 97,87 %
21.11.2015 16:10 5,2 C 5,0 C 3,9 C 84 % 0 lf 996,8 hPa 0,0 l/m 0 min 0 min 12 W/m 12,6 km/h (3 Bft) 97,87 %
21.11.2015 16:12 5,2 C 5,0 C 3,9 C 84 % 0 lf 996,8 hPa 0,0 l/m 0 min 0 min 11 W/m 10,5 km/h (2 Bft) 95,65 %
21.11.2015 16:14 5,2 C 5,0 C 3,9 C 84 % 0 lf 996,8 hPa 0,0 l/m 0 min 0 min 11 W/m 12,6 km/h (3 Bft) 97,87 %
21.11.2015 16:16 5,1 C 5,0 C 3,9 C 85 % 0 lf 996,8 hPa 0,0 l/m 0 min 0 min 11 W/m 16,7 km/h (3 Bft) 100,00 %
21.11.2015 16:18 5,1 C 5,0 C 3,9 C 85 % 0 lf 996,9 hPa 0,0 l/m 0 min 0 min 10 W/m 10,5 km/h (2 Bft) 100,00 %
21.11.2015 16:20 5,1 C 5,0 C 3,9 C 85 % 0 lf 996,9 hPa 0,0 l/m 0 min 0 min 9 W/m 10,5 km/h (2 Bft) 97,87 %
21.11.2015 16:22 5,1 C 5,0 C 3,9 C 85 % 0 lf 996,9 hPa 0,0 l/m 0 min 0 min 9 W/m 8,4 km/h (2 Bft) 100,00 %
21.11.2015 16:24 5,1 C 5,0 C 3,9 C 85 % 0 lf 997,0 hPa 0,0 l/m 0 min 0 min 7 W/m 14,6 km/h (3 Bft) 97,83 %
21.11.2015 16:26 5,1 C 5,0 C 3,9 C 85 % 0 lf 997,0 hPa 0,0 l/m 0 min 0 min 7 W/m 10,5 km/h (2 Bft) 97,87 %
21.11.2015 16:28 5,0 C 5,0 C 3,9 C 85 % 0 lf 997,1 hPa 0,0 l/m 0 min 0 min 6 W/m 14,6 km/h (3 Bft) 97,87 %
21.11.2015 16:30 5,0 C 5,0 C 3,9 C 85 % 0 lf 997,1 hPa 0,0 l/m 0 min 0 min 5 W/m 14,6 km/h (3 Bft) 100,00 %
21.11.2015 16:32 4,9 C 5,0 C 3,9 C 85 % 0 lf 997,2 hPa 0,0 l/m 0 min 0 min 2 W/m 12,6 km/h (3 Bft) 100,00 %
21.11.2015 16:34 4,9 C 5,0 C 3,9 C 86 % 0 lf 997,2 hPa 0,0 l/m 0 min 0 min 0 W/m 12,6 km/h (3 Bft) 100,00 %
21.11.2015 16:36 4,9 C 5,0 C 3,9 C 86 % 0 lf 997,2 hPa 0,0 l/m 0 min 0 min 0 W/m 10,5 km/h (2 Bft) 100,00 %
21.11.2015 16:38 4,9 C 4,4 C 3,9 C 86 % 0 lf 997,2 hPa 0,0 l/m 0 min 0 min 0 W/m 12,6 km/h (3 Bft) 97,87 %
21.11.2015 16:40 4,9 C 4,4 C 3,9 C 86 % 0 lf 997,3 hPa 0,0 l/m 0 min 0 min 0 W/m 8,4 km/h (2 Bft) 100,00 %
21.11.2015 16:42 4,9 C 4,4 C 3,9 C 86 % 0 lf 997,4 hPa 0,0 l/m 0 min 0 min 0 W/m 10,5 km/h (2 Bft) 100,00 %
21.11.2015 16:44 4,8 C 4,4 C 3,9 C 86 % 0 lf 997,4 hPa 0,0 l/m 0 min 0 min 0 W/m 12,6 km/h (3 Bft) 97,87 %
21.11.2015 16:46 4,8 C 4,4 C 3,9 C 86 % 0 lf 997,4 hPa 0,0 l/m 0 min 0 min 0 W/m 12,6 km/h (3 Bft) 100,00 %
21.11.2015 16:48 4,8 C 4,4 C 3,3 C 87 % 0 lf 997,4 hPa 0,0 l/m 0 min 0 min 0 W/m 12,6 km/h (3 Bft) 100,00 %
21.11.2015 16:50 4,8 C 4,4 C 3,3 C 87 % 0 lf 997,5 hPa 0,0 l/m 0 min 0 min 0 W/m 10,5 km/h (2 Bft) 100,00 %
21.11.2015 16:52 4,8 C 4,4 C 3,3 C 87 % 0 lf 997,5 hPa 0,0 l/m 0 min 0 min 0 W/m 10,5 km/h (2 Bft) 100,00 %
21.11.2015 16:54 4,7 C 4,4 C 3,3 C 87 % 0 lf 997,5 hPa 0,0 l/m 0 min 0 min 0 W/m 8,4 km/h (2 Bft) 97,87 %
21.11.2015 16:56 4,7 C 4,4 C 3,3 C 87 % 0 lf 997,6 hPa 0,0 l/m 0 min 0 min 0 W/m 8,4 km/h (2 Bft) 97,87 %
21.11.2015 16:58 4,7 C 4,4 C 3,3 C 87 % 0 lf 997,6 hPa 0,0 l/m 0 min 0 min 0 W/m 10,5 km/h (2 Bft) 100,00 %
21.11.2015 17:00 4,7 C 4,4 C 3,3 C 87 % 0 lf 997,5 hPa 0,0 l/m 0 min 0 min 0 W/m 10,5 km/h (2 Bft) 97,83 %
21.11.2015 17:02 4,7 C 4,4 C 3,3 C 87 % 0 lf 997,6 hPa 0,0 l/m 0 min 0 min 0 W/m 6,3 km/h (2 Bft) 87,23 %
21.11.2015 17:04 4,7 C 4,4 C 3,3 C 87 % 0 lf 997,6 hPa 0,0 l/m 0 min 0 min 0 W/m 4,2 km/h (1 Bft) 93,62 %
21.11.2015 17:06 4,6 C 4,4 C 3,3 C 88 % 0 lf 997,7 hPa 0,0 l/m 0 min 0 min 0 W/m 6,3 km/h (2 Bft) 95,74 %
21.11.2015 17:08 4,6 C 4,4 C 3,3 C 88 % 0 lf 997,7 hPa 0,0 l/m 0 min 0 min 0 W/m 10,5 km/h (2 Bft) 93,62 %
21.11.2015 17:10 4,6 C 4,4 C 3,3 C 88 % 0 lf 997,8 hPa 0,0 l/m 0 min 0 min 0 W/m 12,6 km/h (3 Bft) 95,74 %
21.11.2015 17:12 4,6 C 4,4 C 3,3 C 88 % 0 lf 997,8 hPa 0,0 l/m 0 min 0 min 0 W/m 10,5 km/h (2 Bft) 97,83 %
21.11.2015 17:14 4,6 C 4,4 C 3,3 C 88 % 0 lf 997,7 hPa 0,0 l/m 0 min 0 min 0 W/m 14,6 km/h (3 Bft) 95,74 %
21.11.2015 17:16 4,5 C 4,4 C 3,3 C 88 % 0 lf 997,7 hPa 0,0 l/m 0 min 0 min 0 W/m 12,6 km/h (3 Bft) 95,74 %
21.11.2015 17:18 4,5 C 4,4 C 3,3 C 88 % 0 lf 997,7 hPa 0,0 l/m 0 min 0 min 0 W/m 12,6 km/h (3 Bft) 93,62 %
21.11.2015 17:20 4,5 C 4,4 C 3,3 C 88 % 0 lf 997,7 hPa 0,0 l/m 0 min 0 min 0 W/m 8,4 km/h (2 Bft) 93,62 %
21.11.2015 17:22 4,5 C 4,4 C 3,3 C 88 % 0 lf 997,7 hPa 0,0 l/m 0 min 0 min 0 W/m 10,5 km/h (2 Bft) 95,65 %
21.11.2015 17:24 4,4 C 4,4 C 3,3 C 88 % 0 lf 997,7 hPa 0,0 l/m 0 min 0 min 0 W/m 12,6 km/h (3 Bft) 89,36 %
21.11.2015 17:26 4,4 C 4,4 C 3,3 C 88 % 0 lf 997,7 hPa 0,0 l/m 0 min 0 min 0 W/m 8,4 km/h (2 Bft) 95,74 %
21.11.2015 17:28 4,4 C 4,4 C 3,3 C 88 % 0 lf 997,7 hPa 0,0 l/m 0 min 0 min 0 W/m 10,5 km/h (2 Bft) 93,62 %
21.11.2015 17:30 4,4 C 4,4 C 3,3 C 88 % 0 lf 997,8 hPa 0,0 l/m 0 min 0 min 0 W/m 8,4 km/h (2 Bft) 93,62 %
21.11.2015 17:32 4,4 C 4,4 C 3,3 C 88 % 0 lf 997,8 hPa 0,0 l/m 0 min 0 min 0 W/m 6,3 km/h (2 Bft) 93,62 %
21.11.2015 17:34 4,4 C 3,9 C 3,3 C 88 % 0 lf 997,9 hPa 0,0 l/m 0 min 0 min 0 W/m 10,5 km/h (2 Bft) 93,48 %
21.11.2015 17:36 4,3 C 3,9 C 3,3 C 88 % 0 lf 997,9 hPa 0,0 l/m 0 min 0 min 0 W/m 10,5 km/h (2 Bft) 93,62 %
21.11.2015 17:38 4,3 C 3,9 C 3,3 C 88 % 0 lf 997,8 hPa 0,0 l/m 0 min 0 min 0 W/m 10,5 km/h (2 Bft) 93,62 %
21.11.2015 17:40 4,3 C 3,9 C 2,8 C 88 % 0 lf 997,8 hPa 0,0 l/m 0 min 0 min 0 W/m 10,5 km/h (2 Bft) 91,49 %
21.11.2015 17:42 4,3 C 3,9 C 2,8 C 88 % 0 lf 997,8 hPa 0,0 l/m 0 min 0 min 0 W/m 14,6 km/h (3 Bft) 93,62 %
21.11.2015 17:44 4,3 C 3,9 C 2,8 C 89 % 0 lf 997,8 hPa 0,0 l/m 0 min 0 min 0 W/m 12,6 km/h (3 Bft) 91,49 %
21.11.2015 17:46 4,2 C 3,9 C 2,8 C 89 % 0 lf 997,8 hPa 0,0 l/m 0 min 0 min 0 W/m 16,7 km/h (3 Bft) 86,96 %
21.11.2015 17:48 4,2 C 3,9 C 2,8 C 89 % 0 lf 997,8 hPa 0,0 l/m 0 min 0 min 1 W/m 12,6 km/h (3 Bft) 89,36 %
21.11.2015 17:50 4,2 C 3,3 C 2,8 C 89 % 0 lf 997,8 hPa 0,0 l/m 0 min 0 min 6 W/m 14,6 km/h (3 Bft) 95,74 %
21.11.2015 17:52 4,1 C 3,3 C 2,8 C 89 % 0 lf 997,8 hPa 0,0 l/m 0 min 0 min 11 W/m 10,5 km/h (2 Bft) 95,74 %
21.11.2015 17:54 4,1 C 3,3 C 2,8 C 89 % 0 lf 997,8 hPa 0,0 l/m 0 min 0 min 13 W/m 8,4 km/h (2 Bft) 93,62 %
21.11.2015 17:56 4,1 C 3,9 C 2,8 C 89 % 0 lf 997,8 hPa 0,0 l/m 0 min 0 min 14 W/m 10,5 km/h (2 Bft) 97,87 %
21.11.2015 17:58 4,0 C 3,9 C 2,8 C 89 % 0 lf 997,9 hPa 0,0 l/m 0 min 0 min 14 W/m 8,4 km/h (2 Bft) 95,65 %
21.11.2015 18:00 4,0 C 3,9 C 2,8 C 89 % 0 lf 997,8 hPa 0,0 l/m 0 min 0 min 14 W/m 8,4 km/h (2 Bft) 97,87 %
21.11.2015 18:02 4,0 C 3,9 C 2,8 C 89 % 0 lf 997,8 hPa 0,0 l/m 0 min 0 min 14 W/m 8,4 km/h (2 Bft) 95,74 %
21.11.2015 18:04 3,9 C 3,9 C 2,8 C 89 % 0 lf 997,9 hPa 0,0 l/m 0 min 0 min 14 W/m 10,5 km/h (2 Bft) 95,74 %
21.11.2015 18:06 3,9 C 3,9 C 2,8 C 89 % 0 lf 997,9 hPa 0,0 l/m 0 min 0 min 14 W/m 12,6 km/h (3 Bft) 97,87 %
21.11.2015 18:08 3,9 C 3,9 C 2,8 C 89 % 0 lf 997,9 hPa 0,0 l/m 0 min 0 min 14 W/m 10,5 km/h (2 Bft) 93,62 %
21.11.2015 18:10 3,9 C 3,9 C 2,8 C 90 % 0 lf 997,9 hPa 0,0 l/m 0 min 0 min 14 W/m 12,6 km/h (3 Bft) 95,65 %
21.11.2015 18:12 3,9 C 3,9 C 2,8 C 90 % 0 lf 998,0 hPa 0,0 l/m 0 min 0 min 14 W/m 8,4 km/h (2 Bft) 91,49 %
21.11.2015 18:14 3,9 C 3,9 C 2,8 C 90 % 0 lf 998,1 hPa 0,0 l/m 0 min 0 min 14 W/m 10,5 km/h (2 Bft) 91,49 %
21.11.2015 18:16 3,9 C 3,9 C 2,8 C 90 % 0 lf 998,0 hPa 0,0 l/m 0 min 0 min 14 W/m 14,6 km/h (3 Bft) 95,74 %
21.11.2015 18:18 3,9 C 3,9 C 2,8 C 90 % 0 lf 998,1 hPa 0,0 l/m 0 min 0 min 14 W/m 16,7 km/h (3 Bft) 93,62 %
21.11.2015 18:20 3,9 C 3,9 C 2,8 C 90 % 0 lf 998,2 hPa 0,0 l/m 0 min 0 min 14 W/m 10,5 km/h (2 Bft) 93,62 %
21.11.2015 18:22 3,9 C 3,9 C 2,8 C 90 % 0 lf 998,2 hPa 0,0 l/m 0 min 0 min 14 W/m 6,3 km/h (2 Bft) 95,65 %
21.11.2015 18:24 3,9 C 3,9 C 2,8 C 90 % 0 lf 998,2 hPa 0,0 l/m 0 min 0 min 14 W/m 10,5 km/h (2 Bft) 95,74 %
21.11.2015 18:26 3,9 C 3,9 C 2,8 C 90 % 0 lf 998,2 hPa 0,0 l/m 0 min 0 min 14 W/m 12,6 km/h (3 Bft) 93,62 %
21.11.2015 18:28 3,8 C 3,9 C 2,8 C 90 % 0 lf 998,3 hPa 0,0 l/m 0 min 0 min 14 W/m 10,5 km/h (2 Bft) 97,87 %
21.11.2015 18:30 3,8 C 3,9 C 2,8 C 90 % 0 lf 998,3 hPa 0,0 l/m 0 min 0 min 14 W/m 12,6 km/h (3 Bft) 97,87 %
21.11.2015 18:32 3,8 C 3,9 C 2,8 C 90 % 0 lf 998,3 hPa 0,0 l/m 0 min 0 min 14 W/m 8,4 km/h (2 Bft) 95,65 %
21.11.2015 18:34 3,8 C 3,9 C 2,8 C 90 % 1 lf 998,3 hPa 0,0 l/m 0 min 0 min 14 W/m 8,4 km/h (2 Bft) 95,74 %
21.11.2015 18:36 3,8 C 3,9 C 2,8 C 90 % 1 lf 998,3 hPa 0,0 l/m 0 min 0 min 14 W/m 10,5 km/h (2 Bft) 93,62 %
21.11.2015 18:38 3,8 C 3,9 C 2,8 C 90 % 1 lf 998,3 hPa 0,0 l/m 0 min 2 min 14 W/m 14,6 km/h (3 Bft) 95,74 %
21.11.2015 18:40 3,8 C 3,9 C 2,8 C 91 % 2 lf 998,3 hPa 0,0 l/m 0 min 2 min 14 W/m 16,7 km/h (3 Bft) 95,74 %
21.11.2015 18:42 3,8 C 3,9 C 2,8 C 91 % 2 lf 998,4 hPa 0,0 l/m 0 min 2 min 14 W/m 12,6 km/h (3 Bft) 95,74 %
21.11.2015 18:44 3,8 C 3,9 C 2,8 C 91 % 3 lf 998,4 hPa 0,0 l/m 0 min 2 min 14 W/m 16,7 km/h (3 Bft) 95,65 %
21.11.2015 18:46 3,8 C 3,9 C 2,8 C 91 % 4 lf 998,5 hPa 0,0 l/m 0 min 2 min 14 W/m 12,6 km/h (3 Bft) 95,74 %
21.11.2015 18:48 3,8 C 3,9 C 2,8 C 91 % 6 lf 998,5 hPa 0,0 l/m 0 min 2 min 14 W/m 14,6 km/h (3 Bft) 93,62 %
21.11.2015 18:50 3,8 C 3,9 C 2,8 C 91 % 6 lf 998,6 hPa 0,0 l/m 0 min 2 min 14 W/m 12,6 km/h (3 Bft) 97,87 %
21.11.2015 18:52 3,8 C 3,9 C 2,8 C 91 % 7 lf 998,5 hPa 0,0 l/m 0 min 2 min 14 W/m 14,6 km/h (3 Bft) 95,74 %
21.11.2015 18:54 3,8 C 3,9 C 2,8 C 91 % 9 lf 998,5 hPa 0,0 l/m 0 min 2 min 14 W/m 16,7 km/h (3 Bft) 95,74 %
21.11.2015 18:56 3,8 C 3,9 C 2,8 C 91 % 11 lf 998,6 hPa 0,0 l/m 0 min 2 min 14 W/m 12,6 km/h (3 Bft) 97,83 %
21.11.2015 18:58 3,8 C 3,9 C 2,8 C 91 % 12 lf 998,6 hPa 0,0 l/m 0 min 2 min 14 W/m 4,2 km/h (1 Bft) 95,74 %
21.11.2015 19:00 3,8 C 3,9 C 2,8 C 91 % 13 lf 998,6 hPa 0,0 l/m 0 min 2 min 14 W/m 10,5 km/h (2 Bft) 97,87 %
21.11.2015 19:02 3,8 C 3,9 C 2,8 C 91 % 14 lf 998,7 hPa 0,0 l/m 0 min 2 min 14 W/m 12,6 km/h (3 Bft) 93,62 %
21.11.2015 19:04 3,8 C 3,3 C 2,8 C 91 % 15 lf 998,7 hPa 0,0 l/m 0 min 2 min 14 W/m 12,6 km/h (3 Bft) 95,74 %
21.11.2015 19:06 3,8 C 3,3 C 2,8 C 91 % 15 lf 998,7 hPa 0,0 l/m 0 min 2 min 14 W/m 10,5 km/h (2 Bft) 97,87 %
21.11.2015 19:08 3,8 C 3,3 C 2,8 C 91 % 15 lf 998,7 hPa 0,0 l/m 0 min 2 min 14 W/m 16,7 km/h (3 Bft) 95,65 %
21.11.2015 19:10 3,8 C 3,3 C 2,8 C 92 % 15 lf 998,8 hPa 0,0 l/m 0 min 2 min 14 W/m 8,4 km/h (2 Bft) 93,62 %
21.11.2015 19:12 3,8 C 3,3 C 2,8 C 92 % 15 lf 998,8 hPa 0,0 l/m 0 min 2 min 14 W/m 16,7 km/h (3 Bft) 91,49 %
21.11.2015 19:14 3,8 C 3,3 C 2,8 C 92 % 15 lf 998,9 hPa 0,0 l/m 0 min 2 min 14 W/m 12,6 km/h (3 Bft) 97,87 %
21.11.2015 19:16 3,8 C 3,3 C 2,8 C 92 % 15 lf 998,8 hPa 0,0 l/m 0 min 2 min 14 W/m 12,6 km/h (3 Bft) 91,49 %
21.11.2015 19:18 3,8 C 3,3 C 2,2 C 92 % 15 lf 998,8 hPa 0,0 l/m 0 min 2 min 14 W/m 12,6 km/h (3 Bft) 95,74 %
21.11.2015 19:20 3,7 C 3,3 C 2,2 C 92 % 15 lf 998,8 hPa 0,0 l/m 0 min 2 min 14 W/m 10,5 km/h (2 Bft) 97,83 %
21.11.2015 19:22 3,7 C 3,3 C 2,2 C 92 % 15 lf 998,8 hPa 0,0 l/m 0 min 2 min 14 W/m 8,4 km/h (2 Bft) 93,62 %
21.11.2015 19:24 3,7 C 3,3 C 2,2 C 92 % 15 lf 998,8 hPa 0,0 l/m 0 min 2 min 14 W/m 12,6 km/h (3 Bft) 95,74 %
21.11.2015 19:26 3,7 C 3,3 C 2,2 C 92 % 15 lf 998,8 hPa 0,2 l/m 0 min 2 min 14 W/m 8,4 km/h (2 Bft) 97,87 %
21.11.2015 19:28 3,7 C 3,3 C 2,2 C 92 % 15 lf 998,8 hPa 0,0 l/m 0 min 2 min 14 W/m 10,5 km/h (2 Bft) 93,62 %
21.11.2015 19:30 3,7 C 3,3 C 2,2 C 92 % 15 lf 998,7 hPa 0,0 l/m 0 min 2 min 14 W/m 10,5 km/h (2 Bft) 93,62 %
21.11.2015 19:32 3,7 C 3,3 C 2,2 C 92 % 15 lf 998,8 hPa 0,0 l/m 0 min 0 min 14 W/m 6,3 km/h (2 Bft) 95,65 %
21.11.2015 19:34 3,7 C 3,3 C 2,2 C 92 % 15 lf 998,8 hPa 0,0 l/m 0 min 0 min 14 W/m 8,4 km/h (2 Bft) 95,74 %
21.11.2015 19:36 3,7 C 3,3 C 2,2 C 92 % 15 lf 998,8 hPa 0,0 l/m 0 min 0 min 14 W/m 8,4 km/h (2 Bft) 97,87 %
21.11.2015 19:38 3,7 C 3,3 C 2,2 C 93 % 15 lf 998,8 hPa 0,0 l/m 0 min 2 min 14 W/m 14,6 km/h (3 Bft) 100,00 %
21.11.2015 19:40 3,7 C 3,3 C 2,2 C 92 % 15 lf 998,9 hPa 0,0 l/m 0 min 2 min 14 W/m 10,5 km/h (2 Bft) 97,87 %
21.11.2015 19:42 3,7 C 3,3 C 2,2 C 92 % 15 lf 998,8 hPa 0,0 l/m 0 min 2 min 14 W/m 12,6 km/h (3 Bft) 97,83 %
21.11.2015 19:44 3,6 C 3,3 C 2,2 C 92 % 15 lf 998,8 hPa 0,0 l/m 0 min 2 min 14 W/m 8,4 km/h (2 Bft) 97,87 %
21.11.2015 19:46 3,6 C 3,3 C 2,2 C 93 % 15 lf 998,9 hPa 0,0 l/m 0 min 2 min 14 W/m 10,5 km/h (2 Bft) 97,87 %
21.11.2015 19:48 3,6 C 3,3 C 2,2 C 93 % 15 lf 998,9 hPa 0,0 l/m 0 min 2 min 14 W/m 10,5 km/h (2 Bft) 100,00 %
21.11.2015 19:50 3,6 C 3,3 C 2,2 C 93 % 15 lf 999,0 hPa 0,0 l/m 0 min 2 min 14 W/m 10,5 km/h (2 Bft) 100,00 %
21.11.2015 19:52 3,6 C 3,3 C 2,2 C 93 % 15 lf 998,9 hPa 0,0 l/m 0 min 2 min 14 W/m 10,5 km/h (2 Bft) 100,00 %
21.11.2015 19:54 3,6 C 3,3 C 2,2 C 93 % 15 lf 998,9 hPa 0,0 l/m 0 min 2 min 14 W/m 10,5 km/h (2 Bft) 100,00 %
21.11.2015 19:56 3,6 C 3,3 C 2,2 C 93 % 15 lf 999,0 hPa 0,0 l/m 0 min 0 min 14 W/m 10,5 km/h (2 Bft) 97,83 %
21.11.2015 19:58 3,6 C 3,3 C 2,2 C 93 % 15 lf 999,0 hPa 0,0 l/m 0 min 0 min 14 W/m 10,5 km/h (2 Bft) 95,74 %
21.11.2015 20:00 3,6 C 3,3 C 2,2 C 93 % 15 lf 999,1 hPa 0,0 l/m 0 min 2 min 14 W/m 8,4 km/h (2 Bft) 97,87 %
21.11.2015 20:02 3,6 C 3,3 C 2,2 C 93 % 15 lf 999,0 hPa 0,0 l/m 0 min 2 min 14 W/m 10,5 km/h (2 Bft) 100,00 %
21.11.2015 20:04 3,6 C 3,3 C 2,2 C 93 % 15 lf 999,0 hPa 0,0 l/m 0 min 2 min 14 W/m 8,4 km/h (2 Bft) 97,87 %
21.11.2015 20:06 3,6 C 3,3 C 2,2 C 93 % 15 lf 999,0 hPa 0,2 l/m 0 min 2 min 14 W/m 12,6 km/h (3 Bft) 95,65 %
21.11.2015 20:08 3,6 C 3,3 C 2,2 C 93 % 15 lf 999,0 hPa 0,0 l/m 0 min 2 min 14 W/m 10,5 km/h (2 Bft) 97,87 %
21.11.2015 20:10 3,6 C 3,3 C 2,2 C 93 % 15 lf 999,0 hPa 0,0 l/m 0 min 2 min 14 W/m 14,6 km/h (3 Bft) 95,74 %
21.11.2015 20:12 3,6 C 3,3 C 2,2 C 93 % 15 lf 998,9 hPa 0,0 l/m 0 min 2 min 14 W/m 20,9 km/h (4 Bft) 91,49 %
21.11.2015 20:14 3,6 C 3,3 C 2,2 C 93 % 15 lf 999,0 hPa 0,0 l/m 0 min 2 min 14 W/m 14,6 km/h (3 Bft) 93,62 %
21.11.2015 20:16 3,6 C 3,3 C 2,2 C 93 % 15 lf 999,0 hPa 0,0 l/m 0 min 2 min 14 W/m 16,7 km/h (3 Bft) 97,87 %
21.11.2015 20:18 3,6 C 3,3 C 2,2 C 94 % 15 lf 999,0 hPa 0,0 l/m 0 min 2 min 14 W/m 14,6 km/h (3 Bft) 97,83 %
21.11.2015 20:20 3,5 C 3,3 C 2,2 C 94 % 15 lf 999,1 hPa 0,0 l/m 0 min 2 min 14 W/m 10,5 km/h (2 Bft) 91,49 %
21.11.2015 20:22 3,5 C 3,3 C 2,2 C 94 % 15 lf 999,1 hPa 0,0 l/m 0 min 2 min 14 W/m 12,6 km/h (3 Bft) 93,62 %
21.11.2015 20:24 3,5 C 3,3 C 2,2 C 94 % 15 lf 999,1 hPa 0,2 l/m 0 min 2 min 14 W/m 10,5 km/h (2 Bft) 95,74 %
21.11.2015 20:26 3,5 C 3,3 C 2,2 C 94 % 15 lf 999,1 hPa 0,0 l/m 0 min 2 min 14 W/m 14,6 km/h (3 Bft) 91,49 %
21.11.2015 20:28 3,5 C 3,3 C 2,2 C 94 % 15 lf 999,1 hPa 0,0 l/m 0 min 2 min 14 W/m 8,4 km/h (2 Bft) 93,62 %
21.11.2015 20:30 3,5 C 3,3 C 2,8 C 94 % 15 lf 999,1 hPa 0,0 l/m 0 min 2 min 14 W/m 18,8 km/h (3 Bft) 93,48 %
21.11.2015 20:32 3,5 C 3,3 C 2,8 C 94 % 15 lf 999,1 hPa 0,0 l/m 0 min 2 min 14 W/m 16,7 km/h (3 Bft) 95,74 %
21.11.2015 20:34 3,6 C 3,3 C 2,8 C 94 % 15 lf 999,2 hPa 0,0 l/m 0 min 2 min 14 W/m 16,7 km/h (3 Bft) 93,62 %
21.11.2015 20:36 3,6 C 3,3 C 2,8 C 94 % 15 lf 999,2 hPa 0,0 l/m 0 min 2 min 14 W/m 18,8 km/h (3 Bft) 95,74 %
21.11.2015 20:38 3,6 C 3,3 C 2,8 C 94 % 15 lf 999,2 hPa 0,0 l/m 0 min 2 min 14 W/m 18,8 km/h (3 Bft) 95,74 %
21.11.2015 20:40 3,6 C 3,3 C 2,8 C 94 % 15 lf 999,3 hPa 0,0 l/m 0 min 2 min 14 W/m 10,5 km/h (2 Bft) 93,48 %
21.11.2015 20:42 3,6 C 3,3 C 2,8 C 94 % 15 lf 999,3 hPa 0,0 l/m 0 min 2 min 14 W/m 20,9 km/h (4 Bft) 93,62 %
21.11.2015 20:44 3,6 C 3,9 C 2,8 C 94 % 15 lf 999,4 hPa 0,0 l/m 0 min 2 min 14 W/m 14,6 km/h (3 Bft) 95,74 %
21.11.2015 20:46 3,6 C 3,9 C 2,8 C 94 % 15 lf 999,4 hPa 0,0 l/m 0 min 2 min 14 W/m 14,6 km/h (3 Bft) 95,74 %
21.11.2015 20:48 3,7 C 3,9 C 2,8 C 95 % 15 lf 999,4 hPa 0,0 l/m 0 min 0 min 14 W/m 18,8 km/h (3 Bft) 91,49 %
21.11.2015 20:50 3,7 C 3,9 C 2,8 C 95 % 15 lf 999,4 hPa 0,0 l/m 0 min 2 min 14 W/m 20,9 km/h (4 Bft) 93,62 %
21.11.2015 20:52 3,7 C 3,9 C 2,8 C 95 % 15 lf 999,6 hPa 0,0 l/m 0 min 2 min 14 W/m 20,9 km/h (4 Bft) 95,65 %
21.11.2015 20:54 3,7 C 3,9 C 2,8 C 95 % 15 lf 999,5 hPa 0,2 l/m 0 min 2 min 14 W/m 23,0 km/h (4 Bft) 91,49 %
21.11.2015 20:56 3,7 C 3,9 C 2,8 C 95 % 15 lf 999,5 hPa 0,0 l/m 0 min 2 min 14 W/m 14,6 km/h (3 Bft) 93,62 %
21.11.2015 20:58 3,8 C 3,9 C 2,8 C 95 % 15 lf 999,6 hPa 0,0 l/m 0 min 2 min 14 W/m 16,7 km/h (3 Bft) 93,62 %
21.11.2015 21:00 3,8 C 3,9 C 2,8 C 95 % 15 lf 999,6 hPa 0,0 l/m 0 min 2 min 14 W/m 23,0 km/h (4 Bft) 95,74 %
21.11.2015 21:02 3,8 C 3,9 C 2,8 C 95 % 15 lf 999,7 hPa 0,0 l/m 0 min 2 min 14 W/m 20,9 km/h (4 Bft) 93,62 %
21.11.2015 21:04 3,8 C 3,9 C 2,8 C 95 % 15 lf 999,7 hPa 0,0 l/m 0 min 2 min 14 W/m 20,9 km/h (4 Bft) 95,65 %
21.11.2015 21:06 3,9 C 3,9 C 2,8 C 95 % 15 lf 999,7 hPa 0,0 l/m 0 min 0 min 14 W/m 20,9 km/h (4 Bft) 95,74 %
21.11.2015 21:08 3,9 C 3,9 C 2,8 C 95 % 15 lf 999,7 hPa 0,0 l/m 0 min 0 min 14 W/m 18,8 km/h (3 Bft) 100,00 %
21.11.2015 21:10 3,9 C 3,9 C 2,8 C 95 % 15 lf 999,8 hPa 0,0 l/m 0 min 0 min 14 W/m 16,7 km/h (3 Bft) 93,62 %
21.11.2015 21:12 3,9 C 3,9 C 2,8 C 95 % 15 lf 999,8 hPa 0,0 l/m 0 min 0 min 14 W/m 23,0 km/h (4 Bft) 97,87 %
21.11.2015 21:14 3,9 C 3,9 C 2,8 C 95 % 15 lf 999,8 hPa 0,0 l/m 0 min 0 min 14 W/m 18,8 km/h (3 Bft) 97,87 %
21.11.2015 21:16 3,9 C 3,9 C 2,8 C 95 % 15 lf 999,8 hPa 0,0 l/m 0 min 0 min 14 W/m 18,8 km/h (3 Bft) 97,83 %
21.11.2015 21:18 4,0 C 3,9 C 2,8 C 95 % 15 lf 999,8 hPa 0,0 l/m 0 min 0 min 14 W/m 14,6 km/h (3 Bft) 97,87 %
21.11.2015 21:20 4,0 C 3,9 C 2,8 C 95 % 15 lf 999,8 hPa 0,0 l/m 0 min 0 min 14 W/m 18,8 km/h (3 Bft) 97,87 %
21.11.2015 21:22 4,0 C 3,9 C 2,8 C 95 % 15 lf 999,9 hPa 0,0 l/m 0 min 0 min 14 W/m 18,8 km/h (3 Bft) 97,87 %
21.11.2015 21:24 4,0 C 3,9 C 2,8 C 95 % 15 lf 999,9 hPa 0,0 l/m 0 min 0 min 14 W/m 16,7 km/h (3 Bft) 97,87 %
21.11.2015 21:26 4,1 C 3,9 C 2,8 C 95 % 15 lf 1000,0 hPa 0,0 l/m 0 min 0 min 14 W/m 23,0 km/h (4 Bft) 95,74 %
21.11.2015 21:28 4,1 C 3,9 C 2,8 C 95 % 15 lf 1000,0 hPa 0,0 l/m 0 min 0 min 14 W/m 14,6 km/h (3 Bft) 100,00 %
21.11.2015 21:30 4,1 C 3,9 C 2,8 C 95 % 15 lf 1000,1 hPa 0,0 l/m 0 min 0 min 14 W/m 23,0 km/h (4 Bft) 100,00 %
21.11.2015 21:32 4,1 C 3,9 C 2,8 C 95 % 15 lf 1000,0 hPa 0,0 l/m 0 min 0 min 14 W/m 20,9 km/h (4 Bft) 100,00 %
21.11.2015 21:34 4,1 C 3,9 C 2,8 C 95 % 15 lf 1000,1 hPa 0,0 l/m 0 min 0 min 14 W/m 16,7 km/h (3 Bft) 100,00 %
21.11.2015 21:36 4,1 C 3,9 C 2,8 C 95 % 15 lf 1000,2 hPa 0,0 l/m 0 min 0 min 14 W/m 18,8 km/h (3 Bft) 97,87 %
21.11.2015 21:38 4,1 C 3,9 C 2,8 C 95 % 15 lf 1000,1 hPa 0,0 l/m 0 min 0 min 14 W/m 16,7 km/h (3 Bft) 100,00 %
21.11.2015 21:40 4,1 C 3,9 C 2,8 C 96 % 15 lf 1000,2 hPa 0,0 l/m 0 min 0 min 14 W/m 20,9 km/h (4 Bft) 97,83 %
21.11.2015 21:42 4,1 C 3,9 C 2,8 C 96 % 15 lf 1000,3 hPa 0,0 l/m 0 min 0 min 14 W/m 20,9 km/h (4 Bft) 100,00 %
21.11.2015 21:44 4,1 C 3,9 C 2,8 C 96 % 15 lf 1000,2 hPa 0,0 l/m 0 min 0 min 14 W/m 18,8 km/h (3 Bft) 95,74 %
21.11.2015 21:46 4,1 C 3,9 C 2,8 C 95 % 15 lf 1000,3 hPa 0,0 l/m 0 min 0 min 14 W/m 20,9 km/h (4 Bft) 97,87 %
21.11.2015 21:48 4,1 C 3,9 C 2,8 C 95 % 15 lf 1000,3 hPa 0,0 l/m 0 min 0 min 14 W/m 20,9 km/h (4 Bft) 97,87 %
21.11.2015 21:50 4,1 C 3,9 C 2,8 C 95 % 15 lf 1000,3 hPa 0,0 l/m 0 min 0 min 14 W/m 20,9 km/h (4 Bft) 100,00 %
21.11.2015 21:52 4,1 C 3,9 C 2,8 C 95 % 15 lf 1000,3 hPa 0,0 l/m 0 min 0 min 14 W/m 25,1 km/h (4 Bft) 97,83 %
21.11.2015 21:54 4,1 C 3,9 C 2,8 C 95 % 15 lf 1000,4 hPa 0,0 l/m 0 min 0 min 14 W/m 18,8 km/h (3 Bft) 100,00 %
21.11.2015 21:56 4,1 C 3,9 C 2,8 C 95 % 15 lf 1000,4 hPa 0,0 l/m 0 min 0 min 14 W/m 23,0 km/h (4 Bft) 97,87 %
21.11.2015 21:58 4,1 C 3,9 C 2,8 C 95 % 15 lf 1000,5 hPa 0,0 l/m 0 min 0 min 14 W/m 29,3 km/h (5 Bft) 100,00 %
21.11.2015 22:00 4,1 C 3,9 C 2,8 C 95 % 15 lf 1000,5 hPa 0,0 l/m 0 min 0 min 14 W/m 33,5 km/h (5 Bft) 97,87 %
21.11.2015 22:02 4,1 C 3,9 C 2,8 C 95 % 15 lf 1000,6 hPa 0,0 l/m 0 min 0 min 14 W/m 25,1 km/h (4 Bft) 97,83 %
21.11.2015 22:04 4,0 C 3,9 C 2,8 C 95 % 15 lf 1000,6 hPa 0,0 l/m 0 min 0 min 14 W/m 25,1 km/h (4 Bft) 97,87 %
21.11.2015 22:06 4,0 C 3,9 C 2,8 C 95 % 15 lf 1000,6 hPa 0,0 l/m 0 min 0 min 14 W/m 27,2 km/h (4 Bft) 100,00 %
21.11.2015 22:08 4,0 C 3,9 C 2,8 C 95 % 15 lf 1000,6 hPa 0,0 l/m 0 min 0 min 14 W/m 18,8 km/h (3 Bft) 97,87 %
21.11.2015 22:10 3,9 C 3,9 C 2,2 C 96 % 15 lf 1000,7 hPa 0,0 l/m 0 min 0 min 14 W/m 18,8 km/h (3 Bft) 97,87 %
21.11.2015 22:12 3,9 C 3,3 C 2,2 C 96 % 15 lf 1000,6 hPa 0,0 l/m 0 min 0 min 14 W/m 20,9 km/h (4 Bft) 100,00 %
21.11.2015 22:13 3,9 C 3,3 C 2,2 C 96 % 15 lf 1000,7 hPa 0,0 l/m 0 min 0 min 14 W/m 16,7 km/h (3 Bft) 100,00 %
21.11.2015 22:16 3,9 C 3,3 C 2,2 C 96 % 15 lf 1000,7 hPa 0,0 l/m 0 min 0 min 14 W/m 14,6 km/h (3 Bft) 100,00 %
21.11.2015 22:18 3,9 C 3,3 C 2,2 C 96 % 15 lf 1000,7 hPa 0,0 l/m 0 min 0 min 14 W/m 10,5 km/h (2 Bft) 100,00 %
21.11.2015 22:20 3,8 C 3,3 C 2,2 C 96 % 15 lf 1000,7 hPa 0,0 l/m 0 min 0 min 14 W/m 20,9 km/h (4 Bft) 95,74 %
21.11.2015 22:22 3,8 C 3,3 C 2,2 C 95 % 15 lf 1000,7 hPa 0,0 l/m 0 min 0 min 14 W/m 16,7 km/h (3 Bft) 100,00 %
21.11.2015 22:24 3,8 C 2,8 C 1,7 C 95 % 15 lf 1000,7 hPa 0,0 l/m 0 min 0 min 14 W/m 16,7 km/h (3 Bft) 100,00 %
21.11.2015 22:26 3,7 C 2,8 C 1,7 C 95 % 15 lf 1000,7 hPa 0,0 l/m 0 min 0 min 14 W/m 16,7 km/h (3 Bft) 97,87 %
21.11.2015 22:28 3,7 C 2,8 C 1,7 C 95 % 15 lf 1000,7 hPa 0,0 l/m 0 min 0 min 14 W/m 16,7 km/h (3 Bft) 93,62 %
21.11.2015 22:30 3,6 C 2,8 C 1,7 C 95 % 15 lf 1000,7 hPa 0,0 l/m 0 min 0 min 18 W/m 18,8 km/h (3 Bft) 95,74 %
21.11.2015 22:32 3,6 C 2,8 C 1,7 C 95 % 15 lf 1000,7 hPa 0,0 l/m 0 min 0 min 30 W/m 14,6 km/h (3 Bft) 95,83 %
21.11.2015 22:34 3,5 C 2,8 C 1,7 C 95 % 15 lf 1000,7 hPa 0,0 l/m 0 min 0 min 21 W/m 14,6 km/h (3 Bft) 97,87 %
21.11.2015 22:36 3,4 C 2,8 C 1,7 C 95 % 15 lf 1000,8 hPa 0,0 l/m 0 min 0 min 11 W/m 23,0 km/h (4 Bft) 93,48 %
21.11.2015 22:38 3,4 C 2,8 C 1,7 C 95 % 15 lf 1000,8 hPa 0,0 l/m 0 min 0 min 9 W/m 18,8 km/h (3 Bft) 95,74 %
21.11.2015 22:40 3,3 C 2,8 C 1,7 C 95 % 15 lf 1000,7 hPa 0,0 l/m 0 min 0 min 5 W/m 14,6 km/h (3 Bft) 93,62 %
21.11.2015 22:42 3,3 C 2,8 C 1,7 C 95 % 15 lf 1000,7 hPa 0,0 l/m 0 min 0 min 5 W/m 23,0 km/h (4 Bft) 97,87 %
21.11.2015 22:44 3,3 C 2,2 C 1,7 C 95 % 15 lf 1000,7 hPa 0,0 l/m 0 min 0 min 5 W/m 20,9 km/h (4 Bft) 95,74 %
21.11.2015 22:46 3,2 C 2,2 C 1,7 C 95 % 15 lf 1000,8 hPa 0,0 l/m 0 min 0 min 5 W/m 25,1 km/h (4 Bft) 95,74 %
21.11.2015 22:48 3,2 C 2,2 C 1,7 C 95 % 15 lf 1000,8 hPa 0,0 l/m 0 min 0 min 5 W/m 20,9 km/h (4 Bft) 95,65 %
21.11.2015 22:50 3,2 C 2,2 C 1,1 C 95 % 15 lf 1000,9 hPa 0,0 l/m 0 min 0 min 5 W/m 10,5 km/h (2 Bft) 93,62 %
21.11.2015 22:52 3,1 C 2,2 C 1,1 C 95 % 15 lf 1000,9 hPa 0,0 l/m 0 min 0 min 5 W/m 20,9 km/h (4 Bft) 91,49 %
21.11.2015 22:54 3,1 C 2,2 C 1,1 C 95 % 15 lf 1000,9 hPa 0,0 l/m 0 min 0 min 5 W/m 16,7 km/h (3 Bft) 93,62 %
21.11.2015 22:56 3,1 C 2,2 C 1,1 C 95 % 15 lf 1001,0 hPa 0,0 l/m 0 min 0 min 5 W/m 20,9 km/h (4 Bft) 95,74 %
21.11.2015 22:58 3,0 C 2,2 C 1,1 C 95 % 15 lf 1001,0 hPa 0,0 l/m 0 min 0 min 5 W/m 20,9 km/h (4 Bft) 91,30 %
21.11.2015 23:00 2,9 C 2,2 C 1,1 C 95 % 15 lf 1001,1 hPa 0,0 l/m 0 min 0 min 5 W/m 18,8 km/h (3 Bft) 93,62 %
21.11.2015 23:02 2,9 C 2,2 C 1,1 C 95 % 15 lf 1001,1 hPa 0,0 l/m 0 min 0 min 3 W/m 14,6 km/h (3 Bft) 93,75 %
21.11.2015 23:04 2,9 C 2,2 C 1,1 C 95 % 15 lf 1001,1 hPa 0,0 l/m 0 min 0 min 0 W/m 18,8 km/h (3 Bft) 93,62 %
21.11.2015 23:06 2,8 C 2,2 C 1,1 C 95 % 15 lf 1001,2 hPa 0,0 l/m 0 min 0 min 0 W/m 12,6 km/h (3 Bft) 95,74 %
21.11.2015 23:08 2,8 C 2,2 C 1,1 C 95 % 15 lf 1001,2 hPa 0,0 l/m 0 min 0 min 0 W/m 12,6 km/h (3 Bft) 89,36 %
21.11.2015 23:10 2,8 C 2,2 C 1,1 C 95 % 15 lf 1001,2 hPa 0,0 l/m 0 min 0 min 0 W/m 12,6 km/h (3 Bft) 91,49 %
21.11.2015 23:12 2,7 C 2,2 C 1,1 C 95 % 15 lf 1001,2 hPa 0,0 l/m 0 min 0 min 0 W/m 18,8 km/h (3 Bft) 89,13 %
21.11.2015 23:14 2,7 C 2,2 C 1,1 C 95 % 15 lf 1001,2 hPa 0,0 l/m 0 min 0 min 0 W/m 14,6 km/h (3 Bft) 91,49 %
21.11.2015 23:16 2,7 C 2,2 C 1,1 C 95 % 15 lf 1001,3 hPa 0,0 l/m 0 min 0 min 0 W/m 14,6 km/h (3 Bft) 91,49 %
21.11.2015 23:18 2,7 C 2,2 C 1,1 C 95 % 15 lf 1001,3 hPa 0,0 l/m 0 min 0 min 0 W/m 14,6 km/h (3 Bft) 91,49 %
21.11.2015 23:20 2,7 C 2,2 C 1,1 C 95 % 15 lf 1001,3 hPa 0,0 l/m 0 min 0 min 0 W/m 14,6 km/h (3 Bft) 91,49 %
21.11.2015 23:22 2,6 C 2,2 C 1,1 C 95 % 15 lf 1001,3 hPa 0,0 l/m 0 min 0 min 0 W/m 18,8 km/h (3 Bft) 93,48 %
21.11.2015 23:24 2,6 C 2,2 C 1,1 C 95 % 15 lf 1001,4 hPa 0,0 l/m 0 min 0 min 0 W/m 14,6 km/h (3 Bft) 89,36 %
21.11.2015 23:26 2,6 C 1,7 C 1,1 C 95 % 15 lf 1001,4 hPa 0,0 l/m 0 min 0 min 0 W/m 18,8 km/h (3 Bft) 91,49 %
21.11.2015 23:28 2,6 C 1,7 C 1,1 C 95 % 15 lf 1001,4 hPa 0,0 l/m 0 min 0 min 0 W/m 14,6 km/h (3 Bft) 93,62 %
21.11.2015 23:30 2,6 C 1,7 C 1,1 C 95 % 15 lf 1001,6 hPa 0,0 l/m 0 min 0 min 0 W/m 14,6 km/h (3 Bft) 91,49 %
21.11.2015 23:32 2,5 C 1,7 C 1,1 C 95 % 15 lf 1001,5 hPa 0,0 l/m 0 min 0 min 0 W/m 18,8 km/h (3 Bft) 91,67 %
21.11.2015 23:34 2,5 C 1,7 C 1,1 C 95 % 15 lf 1001,6 hPa 0,0 l/m 0 min 0 min 0 W/m 18,8 km/h (3 Bft) 89,13 %
21.11.2015 23:36 2,4 C 1,7 C 1,1 C 94 % 15 lf 1001,6 hPa 0,0 l/m 0 min 0 min 0 W/m 14,6 km/h (3 Bft) 89,36 %
21.11.2015 23:38 2,4 C 1,7 C 1,1 C 94 % 15 lf 1001,6 hPa 0,0 l/m 0 min 0 min 0 W/m 20,9 km/h (4 Bft) 95,74 %
21.11.2015 23:40 2,4 C 1,7 C 1,1 C 94 % 15 lf 1001,7 hPa 0,0 l/m 0 min 0 min 0 W/m 14,6 km/h (3 Bft) 91,49 %
21.11.2015 23:42 2,4 C 1,7 C 0,6 C 94 % 15 lf 1001,7 hPa 0,0 l/m 0 min 0 min 0 W/m 12,6 km/h (3 Bft) 93,62 %
21.11.2015 23:44 2,4 C 1,7 C 0,6 C 94 % 15 lf 1001,7 hPa 0,0 l/m 0 min 0 min 0 W/m 12,6 km/h (3 Bft) 95,74 %
21.11.2015 23:46 2,4 C 1,7 C 0,6 C 94 % 15 lf 1001,7 hPa 0,0 l/m 0 min 0 min 0 W/m 12,6 km/h (3 Bft) 95,65 %
21.11.2015 23:48 2,4 C 1,7 C 0,6 C 94 % 15 lf 1001,8 hPa 0,0 l/m 0 min 0 min 0 W/m 8,4 km/h (2 Bft) 97,87 %
21.11.2015 23:50 2,4 C 1,7 C 0,6 C 94 % 15 lf 1001,8 hPa 0,0 l/m 0 min 0 min 0 W/m 14,6 km/h (3 Bft) 97,87 %
21.11.2015 23:52 2,3 C 1,1 C 0,6 C 94 % 15 lf 1001,8 hPa 0,0 l/m 0 min 0 min 0 W/m 10,5 km/h (2 Bft) 97,87 %
21.11.2015 23:54 2,3 C 1,1 C 0,6 C 94 % 15 lf 1001,9 hPa 0,0 l/m 0 min 0 min 0 W/m 12,6 km/h (3 Bft) 95,74 %
21.11.2015 23:56 2,3 C 1,1 C 0,6 C 95 % 15 lf 1001,8 hPa 0,0 l/m 0 min 0 min 0 W/m 8,4 km/h (2 Bft) 97,87 %
21.11.2015 23:58 2,3 C 1,1 C 0,6 C 95 % 15 lf 1001,9 hPa 0,0 l/m 0 min 0 min 0 W/m 10,5 km/h (2 Bft) 93,48 %
_ Min-Zeit 23:50 23:52 23:42 12:28 00:28 12:56 - - - - 17:04 08:26
Minimum _ 2,3 C 1,1 C 0,6 C 80 % 0 lf 994,9 hPa - - - - 4,2 km/h (1 Bft) 85,11 %
_ Max-Zeit 11:12 11:04 11:02 21:40 02:06 23:54 02:22 09:16 00:00 11:04 00:06 00:06
Maximum _ 6,0 C 15,6 C 5,6 C 96 % 15 lf 1001,9 hPa 0,4 l/m 2 min 2 min 410 W/m 33,5 km/h
SW (5 Bft)
100,00 %
Durchschnitt _ 4,3 C 4,9 C 3,1 C 90 % 7 lf 997,0 hPa #2,8 l/m #3:56 h #3:05 h 87 W/m 18,1 km/h (3 Bft) 95,85 %
© 2015 W. Hausmann